[[{"header":{"parameterUnit":"m.s-1","parameterCategory":1,"la1":30.6,"la2":29.2853,"lo1":-89.7004,"lo2":-87.6739,"dy":0.0162,"dx":0.0183,"nx":112,"ny":82,"refTime":"2023-03-14T06:00:00:Z","depth":0,"parameterNumber":2,"parameterNumberName":"U-component_of_WINDS"},"data":[0.0,0.0,0.0,0.0,0.0,0.0,0.0,0.0,0.0,0.0,0.0,0.0,0.0,0.0,0.0,0.0,0.0,0.0,0.0,0.0,0.0,0.0,0.0,0.0,0.0,0.0,0.0,0.0,0.0,0.0,0.0,0.0,0.0,0.0,0.0,0.0,0.0,0.0,0.0,0.0,0.0,0.0,0.0,0.0,0.0,0.0,0.0,0.0,0.0,0.0,0.0,0.0,0.0,0.0,0.0,0.0,0.0,0.0,0.0,0.0,0.0,0.0,0.0,0.0,0.0,0.0,0.0,0.0,0.0,0.0,0.0,0.0,0.0,0.0,0.0,0.0,0.0,0.0,0.0,0.0,0.0,0.0,0.0,0.0,0.0,0.0,0.0,0.0,0.0,0.0,0.0,7.6118,7.6436,7.678,7.705,7.7101,7.7036,7.6877,0.0,0.0,0.0,0.0,0.0,0.0,0.0,0.0,0.0,0.0,0.0,0.0,0.0,0.0,0.0,0.0,0.0,0.0,0.0,0.0,0.0,0.0,0.0,0.0,0.0,0.0,0.0,0.0,0.0,0.0,0.0,0.0,0.0,0.0,0.0,0.0,0.0,0.0,0.0,0.0,0.0,0.0,0.0,0.0,0.0,0.0,0.0,0.0,0.0,0.0,0.0,0.0,0.0,0.0,0.0,0.0,0.0,0.0,0.0,0.0,0.0,0.0,0.0,0.0,0.0,0.0,0.0,0.0,0.0,0.0,0.0,0.0,0.0,0.0,0.0,0.0,0.0,0.0,0.0,0.0,0.0,0.0,0.0,0.0,0.0,0.0,0.0,0.0,0.0,0.0,0.0,0.0,0.0,0.0,0.0,0.0,0.0,0.0,0.0,0.0,0.0,0.0,0.0,0.0,7.6133,7.6477,7.6669,7.6866,7.7095,7.7101,7.7095,7.705,0.0,0.0,0.0,0.0,0.0,0.0,0.0,0.0,0.0,0.0,0.0,0.0,0.0,0.0,0.0,0.0,0.0,0.0,0.0,0.0,0.0,0.0,0.0,0.0,0.0,0.0,0.0,0.0,0.0,0.0,0.0,0.0,0.0,0.0,0.0,0.0,0.0,0.0,0.0,0.0,0.0,0.0,0.0,0.0,0.0,0.0,0.0,0.0,0.0,0.0,0.0,0.0,0.0,0.0,0.0,0.0,0.0,0.0,0.0,0.0,0.0,0.0,0.0,0.0,0.0,0.0,0.0,0.0,0.0,0.0,0.0,0.0,0.0,0.0,0.0,0.0,0.0,0.0,0.0,0.0,0.0,0.0,0.0,0.0,0.0,0.0,0.0,0.0,0.0,0.0,0.0,0.0,0.0,0.0,0.0,0.0,0.0,0.0,0.0,0.0,0.0,0.0,0.0,7.6186,7.6305,7.6669,7.6768,7.6887,7.7095,7.7101,7.7101,7.7101,7.6989,0.0,0.0,0.0,0.0,0.0,0.0,0.0,0.0,0.0,0.0,0.0,0.0,0.0,0.0,0.0,0.0,0.0,0.0,0.0,0.0,0.0,0.0,0.0,0.0,0.0,0.0,0.0,0.0,0.0,0.0,0.0,0.0,0.0,0.0,0.0,0.0,0.0,0.0,0.0,0.0,0.0,0.0,0.0,0.0,0.0,0.0,0.0,0.0,0.0,0.0,0.0,0.0,0.0,0.0,0.0,0.0,0.0,0.0,0.0,0.0,0.0,0.0,0.0,0.0,0.0,0.0,0.0,0.0,0.0,0.0,0.0,0.0,0.0,0.0,0.0,0.0,0.0,0.0,0.0,0.0,0.0,0.0,0.0,0.0,0.0,0.0,0.0,0.0,0.0,0.0,0.0,0.0,0.0,0.0,0.0,0.0,0.0,0.0,0.0,0.0,0.0,0.0,7.6394,7.6573,7.7053,7.7139,7.7307,7.7681,7.7726,7.7726,7.7726,7.7531,0.0,0.0,0.0,0.0,0.0,0.0,0.0,0.0,0.0,0.0,0.0,0.0,0.0,0.0,0.0,0.0,0.0,0.0,0.0,0.0,0.0,0.0,0.0,0.0,0.0,0.0,0.0,0.0,0.0,0.0,0.0,0.0,0.0,0.0,0.0,0.0,0.0,0.0,0.0,0.0,0.0,0.0,0.0,0.0,0.0,0.0,0.0,0.0,0.0,0.0,0.0,0.0,0.0,0.0,0.0,0.0,0.0,0.0,0.0,0.0,0.0,0.0,0.0,0.0,0.0,0.0,0.0,0.0,0.0,0.0,0.0,0.0,0.0,0.0,0.0,0.0,0.0,0.0,0.0,0.0,0.0,0.0,0.0,0.0,0.0,0.0,0.0,0.0,0.0,0.0,0.0,0.0,0.0,0.0,0.0,0.0,0.0,0.0,0.0,0.0,0.0,0.0,7.6549,7.7092,7.7935,7.8183,7.8618,7.9444,7.9522,7.9522,7.9522,7.8741,0.0,0.0,0.0,0.0,0.0,0.0,0.0,0.0,0.0,0.0,0.0,0.0,0.0,0.0,0.0,0.0,0.0,0.0,0.0,0.0,0.0,0.0,0.0,0.0,0.0,0.0,0.0,0.0,0.0,0.0,0.0,0.0,0.0,0.0,0.0,0.0,0.0,0.0,0.0,0.0,0.0,0.0,0.0,0.0,0.0,0.0,0.0,0.0,0.0,0.0,0.0,0.0,0.0,0.0,0.0,0.0,0.0,0.0,0.0,0.0,0.0,0.0,0.0,0.0,0.0,0.0,0.0,0.0,0.0,0.0,0.0,0.0,0.0,0.0,0.0,0.0,0.0,0.0,0.0,0.0,0.0,0.0,0.0,0.0,0.0,0.0,0.0,0.0,0.0,0.0,0.0,0.0,0.0,0.0,0.0,0.0,0.0,0.0,0.0,0.0,0.0,0.0,7.7462,7.8007,0.0,7.9157,7.9326,7.9678,7.9717,7.9717,7.9717,0.0,0.0,0.0,0.0,0.0,0.0,0.0,0.0,0.0,0.0,0.0,0.0,0.0,0.0,0.0,0.0,0.0,0.0,0.0,0.0,0.0,0.0,0.0,0.0,0.0,0.0,0.0,0.0,0.0,0.0,0.0,0.0,0.0,0.0,0.0,0.0,0.0,0.0,0.0,0.0,0.0,0.0,0.0,0.0,0.0,0.0,0.0,0.0,0.0,0.0,0.0,0.0,0.0,0.0,0.0,0.0,0.0,0.0,0.0,0.0,0.0,0.0,0.0,0.0,0.0,0.0,0.0,0.0,0.0,0.0,0.0,0.0,0.0,0.0,0.0,0.0,0.0,0.0,0.0,0.0,0.0,0.0,0.0,0.0,0.0,0.0,0.0,0.0,0.0,0.0,0.0,0.0,0.0,0.0,0.0,0.0,0.0,0.0,0.0,0.0,0.0,0.0,7.8067,7.8442,7.8993,0.0,8.0107,8.0224,8.0498,8.0537,8.0537,8.0537,0.0,0.0,0.0,0.0,0.0,0.0,0.0,0.0,0.0,0.0,0.0,0.0,0.0,0.0,0.0,0.0,0.0,0.0,0.0,0.0,0.0,0.0,0.0,0.0,0.0,0.0,0.0,0.0,0.0,0.0,0.0,0.0,0.0,0.0,0.0,0.0,0.0,0.0,0.0,0.0,0.0,0.0,0.0,0.0,0.0,0.0,0.0,0.0,0.0,0.0,0.0,0.0,0.0,0.0,0.0,0.0,0.0,0.0,0.0,0.0,0.0,0.0,0.0,0.0,0.0,0.0,0.0,0.0,0.0,0.0,0.0,0.0,0.0,0.0,0.0,0.0,0.0,0.0,0.0,0.0,0.0,0.0,0.0,0.0,0.0,0.0,0.0,0.0,0.0,0.0,0.0,0.0,0.0,0.0,0.0,0.0,0.0,0.0,0.0,0.0,0.0,0.0,7.9018,7.9489,8.0068,8.0927,8.1005,8.1356,8.2215,8.2293,8.2293,0.0,0.0,0.0,0.0,0.0,0.0,0.0,0.0,0.0,0.0,0.0,0.0,0.0,0.0,0.0,0.0,0.0,0.0,0.0,0.0,0.0,0.0,0.0,0.0,0.0,0.0,0.0,0.0,0.0,0.0,0.0,0.0,0.0,0.0,0.0,0.0,0.0,0.0,0.0,0.0,0.0,0.0,0.0,0.0,0.0,0.0,0.0,0.0,0.0,0.0,0.0,0.0,0.0,0.0,0.0,0.0,0.0,0.0,0.0,0.0,0.0,0.0,0.0,0.0,0.0,0.0,0.0,0.0,0.0,0.0,0.0,0.0,0.0,0.0,0.0,0.0,0.0,0.0,0.0,0.0,0.0,0.0,0.0,0.0,0.0,0.0,0.0,0.0,0.0,0.0,0.0,0.0,0.0,0.0,0.0,0.0,0.0,0.0,0.0,0.0,0.0,0.0,0.0,8.009,8.0475,8.0966,8.1825,8.1903,8.202,8.2293,8.2293,8.2293,8.2293,0.0,0.0,0.0,0.0,0.0,0.0,0.0,0.0,0.0,0.0,0.0,0.0,0.0,0.0,0.0,0.0,0.0,0.0,0.0,0.0,0.0,0.0,0.0,0.0,0.0,0.0,0.0,0.0,0.0,0.0,0.0,0.0,0.0,0.0,0.0,0.0,0.0,0.0,0.0,0.0,0.0,0.0,0.0,0.0,0.0,0.0,0.0,0.0,0.0,0.0,0.0,0.0,0.0,0.0,0.0,0.0,0.0,0.0,0.0,0.0,0.0,0.0,0.0,0.0,0.0,0.0,0.0,0.0,0.0,0.0,0.0,0.0,0.0,0.0,0.0,0.0,0.0,0.0,0.0,0.0,0.0,0.0,0.0,0.0,0.0,0.0,0.0,0.0,0.0,0.0,0.0,0.0,0.0,0.0,0.0,0.0,0.0,0.0,0.0,0.0,0.0,0.0,8.1091,8.139,8.1708,8.2254,8.2293,8.2293,8.2293,8.2293,8.2293,8.2293,0.0,0.0,0.0,0.0,0.0,0.0,0.0,0.0,0.0,0.0,0.0,0.0,0.0,0.0,0.0,0.0,0.0,0.0,0.0,0.0,0.0,0.0,0.0,0.0,0.0,0.0,0.0,0.0,0.0,0.0,0.0,0.0,0.0,0.0,0.0,0.0,0.0,0.0,0.0,0.0,0.0,0.0,0.0,0.0,0.0,0.0,0.0,0.0,0.0,0.0,0.0,0.0,0.0,0.0,0.0,0.0,0.0,0.0,0.0,0.0,0.0,0.0,0.0,0.0,0.0,0.0,0.0,0.0,0.0,0.0,0.0,0.0,0.0,0.0,0.0,0.0,0.0,0.0,0.0,0.0,0.0,0.0,0.0,0.0,0.0,0.0,0.0,0.0,0.0,0.0,0.0,0.0,0.0,0.0,0.0,0.0,0.0,0.0,0.0,0.0,0.0,0.0,8.1933,8.2171,8.2293,8.2293,8.2293,8.2293,8.2293,8.2293,8.2293,8.2293,0.0,0.0,0.0,0.0,0.0,0.0,0.0,0.0,0.0,0.0,0.0,0.0,0.0,0.0,0.0,0.0,0.0,0.0,0.0,0.0,0.0,0.0,0.0,0.0,0.0,0.0,0.0,0.0,0.0,0.0,0.0,0.0,0.0,0.0,0.0,0.0,0.0,0.0,0.0,0.0,0.0,0.0,0.0,0.0,0.0,0.0,0.0,0.0,0.0,0.0,0.0,0.0,0.0,0.0,0.0,0.0,0.0,0.0,0.0,0.0,7.7101,7.7101,0.0,0.0,0.0,0.0,0.0,0.0,0.0,0.0,0.0,0.0,0.0,0.0,0.0,0.0,0.0,0.0,0.0,0.0,0.0,0.0,0.0,0.0,0.0,0.0,0.0,0.0,0.0,0.0,0.0,0.0,0.0,0.0,0.0,0.0,0.0,0.0,0.0,0.0,0.0,0.0,8.2179,8.228,8.2293,8.2293,8.2293,8.2293,8.2293,8.2293,8.2293,8.2293,8.2293,0.0,0.0,0.0,0.0,0.0,0.0,0.0,0.0,0.0,0.0,0.0,0.0,0.0,0.0,0.0,0.0,0.0,0.0,0.0,0.0,0.0,0.0,0.0,0.0,0.0,0.0,0.0,0.0,0.0,0.0,0.0,0.0,0.0,0.0,0.0,0.0,0.0,0.0,0.0,0.0,0.0,0.0,0.0,0.0,0.0,0.0,0.0,0.0,0.0,0.0,0.0,0.0,0.0,0.0,0.0,0.0,0.0,0.0,0.0,7.7101,7.7101,0.0,0.0,0.0,0.0,0.0,0.0,0.0,0.0,0.0,0.0,0.0,0.0,0.0,0.0,0.0,0.0,0.0,0.0,0.0,0.0,0.0,0.0,0.0,0.0,0.0,0.0,0.0,0.0,0.0,0.0,0.0,0.0,0.0,0.0,0.0,0.0,0.0,0.0,0.0,0.0,8.2287,8.2293,8.2293,8.2293,8.2293,8.2293,8.2293,8.2293,8.2293,8.2293,8.2293,0.0,0.0,0.0,0.0,0.0,0.0,0.0,0.0,0.0,0.0,0.0,0.0,0.0,0.0,0.0,0.0,0.0,0.0,0.0,0.0,0.0,0.0,0.0,0.0,0.0,0.0,0.0,0.0,0.0,0.0,0.0,0.0,0.0,0.0,0.0,0.0,0.0,0.0,0.0,0.0,0.0,0.0,0.0,0.0,0.0,0.0,0.0,0.0,0.0,0.0,0.0,0.0,0.0,7.7101,7.7101,7.7101,7.7257,7.7335,7.7335,7.7492,7.7375,7.7101,7.7101,0.0,0.0,0.0,0.0,0.0,0.0,0.0,0.0,0.0,0.0,0.0,0.0,0.0,0.0,0.0,0.0,0.0,0.0,0.0,0.0,0.0,0.0,7.8806,7.951,7.983,7.9877,7.9686,0.0,0.0,0.0,0.0,0.0,0.0,0.0,0.0,0.0,0.0,0.0,8.2489,8.2528,8.2567,8.2723,8.2723,8.2723,8.2723,8.2723,8.2723,8.2723,8.2606,8.2528,0.0,0.0,0.0,0.0,0.0,0.0,0.0,0.0,0.0,0.0,0.0,0.0,0.0,0.0,0.0,0.0,0.0,0.0,0.0,0.0,0.0,0.0,0.0,0.0,0.0,0.0,0.0,0.0,0.0,0.0,0.0,0.0,7.4369,7.4486,0.0,0.0,0.0,0.0,0.0,0.0,0.0,0.0,0.0,0.0,0.0,0.0,0.0,7.7101,7.7101,7.7101,7.7101,7.7101,7.7101,7.7101,7.714,7.7882,7.8233,7.8272,7.9014,0.0,7.7101,7.7101,0.0,0.0,0.0,0.0,0.0,0.0,0.0,0.0,0.0,0.0,0.0,0.0,0.0,0.0,0.0,0.0,0.0,0.0,0.0,0.0,0.0,0.0,7.9756,8.0602,8.0804,8.0999,8.1726,8.0573,7.9684,8.0579,8.0602,8.0842,0.0,0.0,0.0,0.0,0.0,0.0,8.323,8.3347,8.3621,8.4401,8.448,8.448,8.448,8.448,8.448,8.448,8.3777,8.3347,8.3347,8.2684,0.0,0.0,0.0,0.0,0.0,0.0,0.0,0.0,0.0,0.0,0.0,0.0,0.0,0.0,0.0,0.0,0.0,0.0,0.0,0.0,0.0,0.0,0.0,0.0,0.0,0.0,0.0,0.0,0.0,7.4993,7.5423,7.5891,7.6281,7.6516,0.0,0.0,0.0,0.0,0.0,0.0,0.0,0.0,0.0,7.7101,7.7101,7.7101,7.7101,7.7609,7.7843,7.7843,7.8311,7.8546,7.8585,7.8975,7.9131,7.9131,7.9522,7.9287,7.8546,7.8546,7.878,7.9131,0.0,0.0,0.0,0.0,7.9717,7.9717,7.9717,7.9717,7.9717,7.9717,0.0,0.0,0.0,0.0,0.0,0.0,0.0,7.9795,8.0302,8.042,8.0654,8.1513,8.1747,8.1825,8.2215,8.1641,8.1165,8.1623,8.1641,8.175,8.2209,8.2293,0.0,0.0,0.0,8.3269,8.4128,8.4245,8.4362,8.4753,8.4792,8.4792,8.4792,8.4792,8.4792,8.4792,8.4441,8.4245,8.4245,8.3894,8.3465,0.0,0.0,0.0,0.0,0.0,0.0,0.0,0.0,0.0,0.0,0.0,0.0,0.0,0.0,0.0,0.0,0.0,0.0,0.0,0.0,0.0,0.0,0.0,0.0,0.0,0.0,0.0,0.0,7.5969,7.636,7.7023,7.7101,7.7101,0.0,0.0,0.0,0.0,0.0,0.0,7.7101,7.7101,7.7218,7.7414,7.7414,7.7531,7.7765,7.8429,7.8741,7.8741,7.9405,7.9717,7.9717,7.9912,8.0029,8.0068,8.0263,8.0381,8.0341,7.9873,7.9834,8.0029,8.0029,8.0185,8.0381,8.0381,8.0381,8.0381,8.0381,8.0381,8.0381,8.0381,8.0381,8.0381,8.0381,0.0,0.0,0.0,0.0,8.0498,8.1161,8.1317,8.1513,8.2137,8.2293,8.2371,8.2567,8.2606,8.2567,8.2332,8.2489,8.2606,8.2606,8.2801,0.0,8.3738,0.0,8.4167,8.5026,8.5143,8.5221,8.5456,8.5456,8.5456,8.5456,8.5456,8.5456,8.5456,8.526,8.5143,8.5143,8.4909,8.448,8.3855,0.0,0.0,0.0,0.0,0.0,0.0,0.0,0.0,0.0,0.0,0.0,0.0,0.0,0.0,0.0,0.0,0.0,0.0,0.0,0.0,0.0,0.0,0.0,0.0,0.0,0.0,0.0,0.0,0.0,7.7101,7.7101,0.0,0.0,0.0,0.0,7.7101,7.7101,7.7101,7.7101,7.7101,7.7492,7.8311,7.8311,7.8741,7.9561,7.96,7.9639,7.9639,7.9678,7.9717,7.9717,8.0576,8.0927,8.0966,8.1825,8.2176,8.2059,8.0381,8.0185,8.0927,8.0927,8.1435,8.2176,8.2176,8.2176,8.2176,8.2176,8.2176,8.2176,8.2176,8.2176,8.2176,8.2176,8.2176,0.0,0.0,8.2176,8.2176,8.2215,8.2215,8.2254,8.2293,8.2293,8.2528,8.3269,8.3426,8.3191,8.245,8.2918,8.3426,8.3426,0.0,8.4675,8.4714,8.4714,8.5065,8.5924,8.6041,8.6353,8.7173,8.729,8.729,8.729,8.729,8.729,8.729,8.651,8.6041,8.6041,8.5221,8.4792,8.4753,8.4714,0.0,0.0,0.0,0.0,0.0,0.0,0.0,0.0,0.0,0.0,0.0,0.0,0.0,0.0,0.0,0.0,0.0,0.0,0.0,0.0,0.0,0.0,0.0,0.0,0.0,0.0,0.0,0.0,7.7101,7.7101,0.0,7.7101,7.7101,7.7101,7.7101,7.7101,7.7335,7.7921,7.7921,7.835,7.9209,7.9248,7.9405,7.9717,8.0263,8.0537,8.0537,8.1122,8.1356,8.1396,8.1691,8.1851,8.1851,8.2164,8.2281,8.2242,8.1617,8.1569,8.1825,8.1825,8.202,8.2293,8.2293,8.2293,8.2293,8.2293,8.2293,8.2293,8.2293,8.2293,8.2293,8.2293,8.2293,8.2293,8.2293,8.2293,8.2411,8.2957,8.3074,8.3191,8.3777,8.3894,8.3972,8.4284,8.4323,8.4245,8.3972,8.4128,8.4323,8.4323,8.4597,8.4987,8.5534,8.5651,8.593,8.6811,8.6951,8.7056,8.7368,8.7407,8.7407,8.7407,8.7407,8.7407,8.7407,8.7095,8.6939,8.6939,8.6627,8.6197,8.5651,8.5651,8.5221,0.0,0.0,0.0,0.0,0.0,0.0,0.0,0.0,0.0,0.0,0.0,0.0,0.0,0.0,0.0,0.0,0.0,0.0,0.0,0.0,0.0,0.0,0.0,0.0,0.0,0.0,7.7101,7.7101,7.7101,7.7101,7.7101,7.7375,7.7531,7.7531,7.7804,7.8233,7.8819,7.8858,7.9248,8.0107,8.0146,8.0263,8.0576,8.1161,8.1435,8.1435,8.2332,8.2723,8.2762,8.3034,8.3198,8.3198,8.3198,8.3196,8.319,8.319,8.3183,8.313,8.2545,8.231,8.231,8.231,8.2305,8.2344,8.2606,8.2684,8.2762,8.3035,8.3152,8.3152,8.3152,8.3152,8.3152,8.3152,8.3152,8.3269,8.3816,8.3933,8.4089,8.4675,8.4792,8.487,8.5182,8.5221,8.5338,8.5612,8.5456,8.5221,8.5221,8.5495,8.5885,8.6431,8.6561,8.684,8.7748,8.7826,8.7938,8.8266,8.8266,8.8266,8.8266,8.8266,8.8149,8.7876,8.7837,8.772,8.7407,8.7407,8.7134,8.6549,8.6236,8.5807,8.5221,0.0,0.0,0.0,0.0,0.0,0.0,0.0,0.0,0.0,0.0,0.0,0.0,0.0,0.0,0.0,0.0,0.0,0.0,0.0,0.0,0.0,0.0,0.0,7.7101,7.7101,7.7101,7.7101,7.7101,7.714,7.714,7.7921,7.8429,7.8429,7.9209,7.9717,7.9756,7.9756,8.0146,8.1005,8.1044,8.1474,8.2332,8.2371,8.2371,8.2371,8.323,8.3621,8.3666,8.4526,8.4883,8.4883,8.4883,8.4881,8.4912,8.4912,8.4912,8.4716,8.3037,8.237,8.237,8.237,8.2367,8.2476,8.3276,8.3543,8.3699,8.4519,8.4792,8.4792,8.4792,8.4792,8.4792,8.4792,8.4792,8.4792,8.4831,8.4831,8.487,8.487,8.487,8.5104,8.5963,8.6158,8.6431,8.729,8.6783,8.6197,8.6197,8.69,8.7446,8.7486,8.747,0.0,8.8624,8.8739,8.9059,8.9919,8.9984,8.9984,8.9984,8.9984,8.9633,8.8774,8.8735,8.8344,8.7525,8.7446,8.7446,8.7407,8.6588,8.6158,8.6158,0.0,0.0,0.0,0.0,0.0,0.0,0.0,0.0,0.0,0.0,0.0,0.0,0.0,0.0,0.0,0.0,0.0,0.0,0.0,0.0,0.0,0.0,7.7101,7.7101,7.7101,7.7101,7.7101,7.7648,7.8038,7.8038,7.8819,7.9326,7.9326,7.9561,7.999,8.0615,8.0654,8.1044,8.1903,8.2528,8.2918,8.3152,8.3816,8.4128,8.4128,8.4385,8.455,8.455,8.4803,8.4883,8.4883,8.4883,8.4882,8.4882,8.4882,8.4882,8.4843,8.4374,8.4179,8.4179,8.4179,8.4209,8.4212,8.4369,8.4441,8.448,8.4714,8.4792,8.4792,8.4792,8.4792,8.4792,8.4792,8.4792,8.4948,8.5573,8.5729,8.5885,8.6549,8.6705,8.6744,8.6978,8.7525,8.8071,8.8305,8.8657,8.8735,8.8071,8.8188,8.8579,8.9203,8.9288,8.9388,8.9604,8.9643,8.9716,8.9978,8.9997,8.9984,8.9984,8.9984,8.9906,8.9672,8.9633,8.9555,8.9281,8.8696,8.8032,8.7407,8.7173,8.7056,0.0,0.0,0.0,0.0,0.0,0.0,0.0,0.0,0.0,0.0,0.0,0.0,0.0,0.0,0.0,0.0,0.0,0.0,0.0,0.0,0.0,0.0,7.7122,7.7257,7.7609,7.7335,7.7257,7.7609,7.8077,7.8546,7.8897,7.9728,8.0246,8.0246,8.0582,8.1005,8.1513,8.1864,8.2293,8.2801,8.3621,8.405,8.405,8.4558,8.4792,8.487,8.52,8.5413,8.5465,8.582,8.5976,8.5976,8.5976,8.5976,8.5976,8.5976,8.5976,8.5937,0.0,0.0,0.0,0.0,8.4918,8.4941,8.5233,8.5338,8.5416,8.5768,8.5885,8.5885,8.5885,8.5885,8.5885,8.5885,8.5885,8.6002,8.651,8.6627,8.6861,8.7759,8.7954,8.8032,8.8422,8.8891,8.9242,8.9242,8.9633,0.0,8.9828,8.9477,8.9437,8.9906,8.9997,9.013,9.0497,9.0541,9.0695,9.1067,9.109,9.1077,9.1077,9.1077,0.0,0.0,0.0,9.0374,9.0023,8.9516,0.0,0.0,0.0,8.7759,8.7407,8.7407,0.0,0.0,8.5065,8.4831,0.0,0.0,0.0,0.0,0.0,0.0,0.0,0.0,0.0,0.0,0.0,0.0,0.0,0.0,0.0,0.0,7.7282,7.7614,7.8429,7.7882,7.7687,7.8468,7.8624,7.9014,7.9756,8.0641,8.1159,8.1162,8.1968,8.2456,8.245,0.0,0.0,0.0,0.0,8.4948,8.4948,8.5026,8.5104,8.5182,8.5924,8.6264,8.6366,8.7148,8.75,8.75,8.7617,8.7656,8.7656,8.7734,8.7773,8.7617,8.5859,8.5195,8.5195,8.5195,8.5195,8.5273,8.5986,0.0,0.0,8.7134,8.7407,8.7407,8.7407,8.7486,8.7564,8.7564,8.7603,8.7681,8.7681,8.7681,8.7876,8.8657,8.8852,8.9047,8.9828,9.0062,9.014,9.014,9.0296,9.0687,9.1467,9.0765,9.0218,9.0413,9.0442,9.0764,9.1637,9.1747,9.2026,9.2802,9.2873,0.0,9.2873,9.2834,9.2482,9.178,9.1624,9.1194,9.0335,9.0179,8.975,8.8852,8.8852,8.8461,8.7681,8.7681,8.7681,8.7681,8.6705,8.6236,0.0,0.0,0.0,0.0,0.0,0.0,0.0,0.0,0.0,0.0,0.0,0.0,0.0,0.0,0.0,7.8123,7.8202,7.847,7.9332,7.9287,7.9248,7.9444,8.0068,8.0576,8.0738,8.1558,8.2046,8.2069,8.2851,8.3349,8.3354,8.4167,8.4597,8.4558,8.5377,8.5846,8.5846,8.6549,8.69,8.6939,8.7056,0.0,8.7191,8.7418,8.75,8.7539,8.8203,8.8476,8.8515,8.9219,8.9531,8.9336,8.7656,8.6992,8.6992,8.6992,8.6953,8.6953,8.7099,8.7157,8.7173,8.7368,8.7407,8.7407,8.7407,8.7876,0.0,8.8461,8.8969,8.9516,8.9516,8.9516,8.9555,8.9711,8.975,8.9789,8.9945,9.0531,9.1038,9.1038,9.2131,9.3107,9.3302,9.2053,9.1507,9.2873,9.3111,9.3435,9.4278,9.436,9.4435,9.4598,9.463,9.463,9.463,9.4591,9.4512,9.4356,9.3693,9.2912,9.2053,9.1389,9.0648,8.975,8.975,8.9672,8.9516,8.9516,8.9516,8.9477,8.7876,8.7134,0.0,0.0,0.0,0.0,0.0,0.0,0.0,0.0,0.0,0.0,0.0,7.7144,0.0,0.0,7.8001,7.8437,7.8828,7.9335,8.0225,8.0358,8.0347,8.0363,8.0743,8.1161,8.1591,8.2437,8.2961,8.2969,8.375,8.4257,8.4245,8.5044,8.5507,8.5439,8.6298,8.6767,8.6767,8.7196,8.7621,8.8032,8.8032,8.8285,8.8697,8.8749,8.875,8.8789,8.9179,8.9336,8.9375,8.9804,9.0,8.9922,8.9062,8.875,8.875,8.875,8.8711,8.8711,8.8709,8.8694,8.8696,8.8696,8.8696,8.8696,8.8696,8.9008,8.9366,8.9339,8.9657,8.9997,8.9984,8.9984,9.0101,9.0531,9.096,9.135,9.1819,9.26,9.3185,9.3185,9.3888,9.4434,9.4434,9.3771,9.3497,9.4317,9.4504,9.4673,9.5063,9.5129,9.5313,9.5723,9.5753,9.5914,9.6354,9.5996,9.5762,9.5762,9.4942,9.4278,9.381,9.3419,9.26,9.1272,9.1233,9.0843,8.9984,8.9984,8.9984,8.9984,8.9125,8.8696,0.0,0.0,0.0,0.0,0.0,0.0,0.0,0.0,7.7187,7.7187,7.7344,7.7461,7.7461,7.8164,7.8789,7.8945,7.9531,8.0273,8.1133,8.124,8.13,8.1508,8.15,8.1769,8.2467,8.3354,8.3867,8.3867,8.4648,8.5156,8.5156,8.5924,8.6376,8.635,8.7216,8.7649,8.7649,8.7805,8.8264,8.8948,8.8948,8.9322,9.0,9.0,9.0,9.0,9.0195,9.0351,9.0508,9.0508,9.0508,9.0508,9.0508,9.0508,9.0469,9.0117,9.0,9.0,9.0,8.9992,9.0003,8.9997,8.9997,8.9997,8.9997,9.0108,9.0264,9.0252,9.049,9.0759,9.0771,9.0882,9.1155,9.1858,9.2522,9.3185,9.3888,9.4591,9.5098,9.5098,9.5254,9.541,9.5567,9.5762,9.5723,9.541,9.5527,9.5736,9.5841,9.6055,9.6425,9.7089,9.7172,9.7452,9.813,9.7571,9.7174,9.7167,9.6347,9.5762,9.5606,9.5449,9.4591,9.3029,9.299,9.2326,9.0999,9.0999,9.0999,9.0999,9.0999,9.0648,7.7187,7.7187,7.7187,7.7187,7.7187,7.7187,0.0,0.0,7.7187,7.7187,7.7812,7.8359,7.8359,7.9023,7.9805,8.0586,8.0781,8.1172,8.2031,8.2148,8.2456,8.3203,8.331,8.3358,8.3437,8.4257,8.4765,8.4765,8.5547,8.6054,8.6054,8.6875,8.7336,8.7258,8.8117,8.8554,8.8554,8.9336,8.9765,8.9843,8.9843,8.9921,9.0,9.0,9.0,9.0039,9.082,9.1601,9.2304,9.2304,9.2304,9.2304,9.2304,9.2304,9.2109,9.0586,9.0,9.0,9.0,9.0,8.9998,8.9989,8.9982,8.9982,8.9982,9.0555,9.1162,9.1162,9.2251,9.3474,9.3472,9.4005,9.4552,9.4669,9.4747,9.4825,9.4942,9.502,9.5098,9.5098,9.5723,9.6503,9.7284,9.8065,9.8026,9.6503,9.6933,9.7695,9.8457,9.9263,9.9744,9.9861,9.9868,9.9893,9.9999,9.9913,9.9854,9.9868,9.9041,9.8221,9.744,9.666,9.5801,9.4825,9.4825,9.4708,9.4512,9.4512,9.4512,9.4512,9.4512,9.2912,7.7187,7.7187,7.7187,7.7187,7.7187,7.7344,7.7851,7.7969,7.8086,7.8555,7.8945,7.9219,7.9219,7.9883,8.0586,0.0,8.1445,8.207,8.2929,8.3047,8.3397,8.425,8.4803,8.4922,8.4414,8.5156,8.5664,8.5664,8.6445,8.6953,8.6953,8.7734,8.8202,8.8154,8.8983,8.9453,8.9453,8.9804,9.0234,9.0742,9.0742,9.1289,9.2265,9.2265,9.2539,9.3047,9.3398,9.3789,9.4101,9.4101,9.4101,9.4101,9.4101,9.4101,9.3945,9.2734,9.2265,9.2344,9.2851,9.3047,9.3047,9.3046,9.3045,9.3045,9.3045,9.3275,9.3586,9.3586,9.4099,9.4648,9.464,9.4894,9.5098,9.5098,9.5488,9.5879,9.584,9.666,9.7362,9.7362,9.8085,9.8799,9.9151,9.9524,9.9509,9.8768,9.8983,9.9351,9.9711,10.0083,10.0506,10.1004,10.1515,10.1791,10.1797,10.1288,10.109,10.1085,10.0215,9.9569,9.9236,9.8846,9.826,9.7401,9.6855,9.6347,9.5879,9.5332,9.5098,9.5098,9.5098,9.4317,7.7265,7.7383,7.7578,7.7578,7.7578,7.7773,7.8633,7.8828,7.8984,7.957,7.9883,8.0078,8.0078,8.0781,8.1445,8.1679,8.2265,8.2969,8.3828,8.3945,8.4297,8.5156,8.582,8.6054,8.5664,8.6172,8.6562,8.6562,8.7344,8.7812,8.7812,8.8594,8.9062,8.9062,8.9883,9.0351,9.0351,9.0859,9.1406,9.2031,9.2265,9.3047,9.4258,9.4258,9.4609,9.5195,9.5195,9.5195,9.5195,9.5195,9.5195,9.5195,9.5195,9.5195,9.5156,9.4765,9.4453,9.4336,9.4961,9.5195,9.5195,9.5195,9.5195,9.5195,9.5195,9.5195,9.5195,9.5195,9.5351,9.5547,9.5547,9.5656,9.5865,9.6133,9.6673,9.7181,9.7409,9.8463,9.9367,9.9361,9.9881,10.041,10.0616,10.0713,10.0812,10.1293,10.1391,10.128,10.1007,10.1386,10.2015,10.2617,10.3203,10.3594,10.3594,10.3008,10.2617,10.2304,10.1716,10.1195,10.0695,10.0688,10.0212,9.9392,9.8729,9.8104,9.7479,9.6855,9.6542,9.6542,9.6542,9.6542,0.0,7.7812,7.8476,7.8476,7.8476,7.8672,7.9492,7.9648,7.9687,7.9687,8.0351,8.0976,8.0976,8.1679,8.2539,8.3398,8.3554,8.3867,8.4726,8.4844,8.5195,8.6054,8.6172,8.6523,8.7344,8.7461,8.7461,8.7461,8.8203,8.8672,8.8672,8.9492,8.9961,8.9961,9.082,9.125,9.125,9.2929,9.3789,9.3828,9.4687,9.5117,9.5156,9.5156,9.5156,9.5195,9.5195,9.5195,9.5195,9.5195,9.5195,9.5195,9.5195,9.5195,9.5312,9.6133,9.5898,9.5156,9.5195,9.5195,9.5195,9.5195,9.5195,9.5195,9.5195,9.5195,9.5195,9.5195,9.582,9.6445,9.6367,9.6992,9.7811,9.866,9.8891,9.916,9.9992,10.02,10.0293,10.0298,10.0298,10.059,10.1405,10.1582,10.2113,10.3788,10.4101,10.3789,10.289,10.4297,10.539,10.539,10.539,10.539,10.539,10.539,10.5,10.4219,10.4101,10.3318,10.1586,10.16,10.1188,10.029,10.0212,10.0212,10.0212,10.0212,10.0095,10.0095,10.0095,10.0095,0.0,7.9062,7.9297,7.9297,7.9297,7.9531,8.0351,8.0547,8.0742,8.1328,8.164,8.2031,8.2617,8.2969,8.3437,8.4336,8.4453,8.4765,8.5625,8.5742,8.6094,8.6953,8.707,8.7383,8.8203,8.8281,8.8281,8.8281,8.9062,8.957,8.957,9.039,9.1133,9.1719,9.2578,9.3281,9.3867,9.4453,9.4765,9.4765,9.5664,9.6328,9.6875,9.7461,9.8047,9.8594,9.8594,9.8594,9.8594,9.8594,9.8594,9.8594,9.8594,9.8594,9.8633,9.8906,9.8828,9.8437,9.7265,9.6875,9.6875,9.6875,9.7265,9.7734,9.7734,9.8125,9.8594,9.8594,9.8789,9.9023,9.8984,9.9219,9.9492,9.9804,9.9841,9.9959,10.0189,10.0801,10.1221,10.1202,10.2103,10.3004,10.3281,10.3787,10.441,10.5,10.5117,10.5,10.4687,10.5117,10.5508,10.5508,10.5508,10.5508,10.5508,10.5508,10.539,10.5117,10.5117,10.4803,10.4085,10.3591,10.3101,10.2789,10.1696,10.111,10.111,10.0603,10.029,10.029,10.029,10.029,7.9765,7.9922,8.0156,8.0156,8.0156,8.039,8.1289,8.1445,8.1601,8.2187,8.2539,8.2929,8.3515,8.3867,8.4336,8.5234,8.5351,8.5664,8.6523,8.664,8.6875,8.7422,8.7734,8.8125,8.8633,0.0,8.9492,8.9179,8.9961,9.0469,9.0469,9.1601,9.25,9.3047,9.3906,9.4648,9.5195,9.5781,9.6406,9.7031,9.7578,9.8125,9.8633,9.9219,9.9765,10.0312,10.0312,10.0312,10.0312,10.0312,10.0312,10.0312,10.0312,10.0312,10.0312,10.0312,10.0312,10.0117,9.9023,9.8633,9.8633,9.8633,9.9023,9.9453,9.9453,9.9844,10.0312,10.0312,10.0312,10.0312,10.0312,10.0312,10.039,10.0703,10.0781,10.0781,10.1211,10.1908,10.2484,10.25,10.3711,10.4687,10.4687,10.539,10.5898,10.5898,10.6211,10.6289,10.6015,10.6211,10.6406,10.6406,10.6406,10.6406,10.6406,10.6406,10.6289,10.5898,10.5898,10.578,10.5384,10.4886,10.4584,10.4584,10.3491,10.2906,10.2906,10.2398,10.2008,10.1696,10.1696,10.15,8.0078,8.0429,8.1054,8.1054,8.1054,8.1289,8.2109,8.2304,8.2304,8.2344,8.3008,8.3633,8.3711,8.4414,8.5234,8.6133,8.6289,8.6562,8.7383,8.7539,8.7578,0.0,0.0,0.0,0.0,0.0,0.0,9.0273,9.0976,9.1445,9.1445,9.3047,9.3984,9.4023,9.4883,9.5351,9.539,9.7031,9.8672,10.0312,10.0312,10.0312,10.039,10.039,10.039,10.039,10.039,10.039,10.039,10.039,10.039,10.039,10.0508,10.0508,10.0508,10.0508,10.0586,10.0586,10.0586,10.039,10.0312,10.0312,10.0312,10.039,10.039,10.039,10.039,10.039,10.039,10.039,10.039,10.0508,10.0703,10.1484,10.1797,10.1992,10.289,10.3711,10.4297,10.4297,10.5,10.5586,10.5586,10.6289,10.6797,10.6797,10.75,10.7695,10.6914,10.75,10.8008,10.8008,10.8008,10.8008,10.8008,10.8008,10.7617,10.6797,10.6797,10.6406,10.5586,10.5482,10.5482,10.5482,10.5404,10.5404,10.5404,10.5404,10.5014,10.4194,10.4194,10.3687,8.1719,8.1797,8.1953,8.1953,8.1953,8.2031,8.2265,8.2304,8.2461,8.3125,8.3437,8.3984,8.5312,8.5703,8.6133,8.7031,8.7187,8.7265,8.7461,8.8008,0.0,8.8398,0.0,8.9922,9.0586,9.1054,0.0,9.2812,9.3125,9.3242,9.3242,9.4258,9.5156,9.582,9.664,9.7383,9.8008,9.9101,9.9844,10.0312,10.0312,10.0586,10.1289,10.1289,10.1601,10.2187,10.2187,10.2187,10.2187,10.2187,10.2187,10.2304,10.3008,10.3203,10.3281,10.3906,10.4219,10.4219,10.4219,10.25,10.0312,10.0312,10.0703,10.1289,10.1289,10.1719,10.2187,10.2187,10.2187,10.2187,10.2187,10.2695,10.3281,10.3515,10.3984,10.4609,10.4804,10.5,10.5195,10.5195,10.5781,10.6601,10.7304,10.75,10.7695,10.7695,10.789,10.789,10.7695,10.789,10.8008,10.8008,10.8008,10.8008,10.8008,10.8008,10.789,10.7695,10.7695,10.7617,10.7304,10.6706,10.6409,10.6419,10.5717,10.5404,10.5404,10.5404,10.5287,10.5092,10.5092,10.4897,8.2304,8.2304,8.2304,8.2304,8.2304,8.2383,8.2773,8.2851,8.3125,8.3984,8.4453,8.5039,8.6015,8.6523,8.6914,8.7422,8.75,8.7617,8.7969,8.8437,8.8828,0.0,9.0039,0.0,9.125,9.1992,9.2851,0.0,9.3906,9.4062,9.4453,9.5625,9.6523,9.6992,9.8203,9.9258,10.0117,10.0586,10.1094,10.1406,10.1406,10.1719,10.2187,10.2617,10.3008,10.3515,10.3906,10.3984,10.3984,10.3984,10.3984,10.4101,10.4609,10.4804,10.4804,10.5312,10.5508,10.5508,10.5508,10.4219,10.2617,10.2617,10.289,10.3281,10.3281,10.3711,10.3984,10.3984,10.3984,10.3984,10.3984,10.4414,10.4804,10.4804,10.5117,10.5508,10.5508,10.5781,10.6093,10.6484,10.6992,10.7383,10.789,10.8008,10.8008,10.8008,10.8008,10.8008,10.8008,10.8008,10.8008,10.8008,10.8008,10.8008,10.8008,10.8008,10.8008,10.8008,10.8008,10.8008,10.8008,10.7497,10.7288,10.7317,10.681,10.6497,10.6497,10.6497,10.6302,10.599,10.599,10.5795,8.2304,8.2304,8.2304,8.2304,8.2383,8.2656,8.3437,8.3672,8.4023,8.4883,8.5664,8.625,8.6367,8.6992,8.75,8.75,8.75,8.7773,8.8594,8.8789,8.9219,9.0078,9.0937,9.1523,9.164,9.3008,9.3984,9.4219,9.4336,9.4726,9.5508,9.7031,9.7969,9.8203,9.9687,10.0898,10.1797,10.1797,10.2187,10.3086,10.3086,10.3086,10.3281,10.3984,10.4414,10.4414,10.5195,10.5508,10.5508,10.5508,10.5508,10.5508,10.5586,10.5703,10.5703,10.5781,10.5781,10.5781,10.5781,10.5781,10.5781,10.5586,10.5508,10.5508,10.5508,10.5508,10.5508,10.5508,10.5508,10.5508,10.5508,10.5586,10.5703,10.5703,10.5703,10.5781,10.5781,10.6406,10.7109,10.789,10.8008,10.8008,10.8008,10.8008,10.8008,10.8008,10.8008,10.8008,10.8008,10.8008,10.8008,10.8008,10.8008,10.8008,10.8008,10.8008,10.8008,10.8008,10.8008,10.8008,10.8008,10.8008,10.8001,10.7989,10.7981,10.802,10.802,10.802,10.759,10.6888,10.6888,10.6497,8.2304,8.2304,8.2304,8.2304,8.2851,8.3398,8.3554,8.414,8.4922,8.5781,8.6094,8.6406,8.7148,8.7383,8.75,8.75,8.75,8.7773,8.8594,8.9336,9.0117,0.0,9.1836,9.2656,9.3398,9.3711,0.0,9.5937,9.6679,9.7109,9.7265,9.8242,9.9414,10.0898,10.1211,10.1797,10.2695,10.2695,10.3086,10.3984,10.3984,10.4414,10.5117,10.5195,10.5312,10.5312,10.539,10.5508,10.5508,10.5508,10.5508,10.5586,10.6211,10.6484,10.6601,10.7304,10.7617,10.7617,10.7617,10.7617,10.7304,10.6015,10.5508,10.5508,10.5508,10.5508,10.5508,10.5508,10.5508,10.5508,10.5508,10.6015,10.6484,10.6484,10.6992,10.7617,10.7617,10.7695,10.7812,10.8008,10.8008,10.8008,10.8008,10.8008,10.8008,10.8008,10.8008,10.8008,10.8008,10.8008,10.8008,10.8008,10.8008,10.8008,10.8008,10.8008,10.8008,10.8008,10.8008,10.8008,10.8008,10.8008,10.8005,10.7987,10.7996,10.802,10.802,10.802,10.7903,10.7786,10.7786,10.7708,8.2304,8.2304,8.2422,8.2851,8.3281,8.3828,8.4765,8.5273,8.582,8.6719,8.6875,8.6992,8.7422,8.75,8.75,8.75,8.7851,8.8437,8.9258,9.0117,9.1015,9.1875,9.2734,9.3437,9.3867,9.4726,9.5781,9.7031,9.789,9.8398,9.8398,9.9648,10.0898,10.2187,10.2304,10.2695,10.3594,10.3594,10.3984,10.4883,10.4883,10.5117,10.5508,10.5898,10.6093,10.6093,10.6601,10.6797,10.6797,10.6797,10.6797,10.6797,10.7187,10.7383,10.7383,10.7812,10.8008,10.8008,10.8008,10.8008,10.789,10.7109,10.6797,10.6797,10.6797,10.6797,10.6797,10.6797,10.6797,10.6797,10.6797,10.7109,10.7383,10.7383,10.7695,10.8008,10.8008,10.8008,10.8008,10.8008,10.8008,10.8008,10.8008,10.8008,10.8008,10.8008,10.8008,10.8008,10.8008,10.8008,10.8008,10.8008,10.8008,10.8008,10.8008,10.8008,10.8008,10.8008,10.8008,10.8008,10.8008,10.8008,10.8007,10.8003,10.801,10.802,10.802,10.802,10.802,10.802,10.802,10.802,8.2304,8.2304,8.25,8.3398,8.375,8.4297,8.5859,8.6328,8.6679,8.7344,8.75,8.75,8.75,8.75,8.75,8.75,8.8164,8.8984,8.9883,9.0742,9.1679,9.2734,9.3476,9.4062,9.4414,9.5859,9.7109,9.7929,9.8945,9.957,9.957,10.1015,10.2304,10.3203,10.3203,10.3594,10.4492,10.4492,10.4883,10.5781,10.5781,10.5898,10.6093,10.6719,10.6992,10.6992,10.7695,10.8008,10.8008,10.8008,10.8008,10.8008,10.8008,10.8008,10.8008,10.8008,10.8008,10.8008,10.8008,10.8008,10.8008,10.8008,10.8008,10.8008,10.8008,10.8008,10.8008,10.8008,10.8008,10.8008,10.8008,10.8008,10.8008,10.8008,10.8008,10.8008,10.8008,10.8008,10.8008,10.8008,10.8008,10.8008,10.8008,10.8008,10.8008,10.8008,10.8008,10.8008,10.8008,10.8008,10.8008,10.8008,10.8008,10.8008,10.8008,10.8008,10.8008,10.8008,10.8008,10.8008,10.8008,10.8008,10.8008,10.8008,10.7991,10.7996,10.802,10.802,10.802,10.802,10.802,10.802,8.2304,8.2304,8.25,8.3398,8.4219,8.5039,8.5976,8.6797,8.7383,8.7461,8.75,8.75,8.75,8.75,8.75,8.75,8.8164,8.8984,8.9883,9.0742,9.1914,9.3594,9.3867,9.4531,9.6094,9.707,9.7969,9.8828,10.039,10.1406,10.1406,10.2304,10.3203,10.4101,10.4101,10.4492,10.539,10.539,10.5781,10.6601,10.6601,10.6992,10.7812,10.7812,10.789,10.789,10.8008,10.8008,10.8008,10.8008,10.8008,10.8008,10.8008,10.8008,10.8008,10.8008,10.8008,10.8008,10.8008,10.8008,10.8008,10.8008,10.8008,10.8008,10.8008,10.8008,10.8008,10.8008,10.8008,10.8008,10.8008,10.8008,10.8008,10.8008,10.8008,10.8008,10.8008,10.8008,10.8008,10.8008,10.8008,10.8008,10.8008,10.8008,10.8008,10.8008,10.8008,10.8008,10.8008,10.8008,10.8008,10.8008,10.8008,10.8008,10.8008,10.8008,10.8008,10.8008,10.8008,10.8008,10.8008,10.8008,10.8008,10.8008,10.8007,10.7998,10.802,10.802,10.802,10.802,10.802,10.802,8.2304,8.2695,8.3281,8.414,8.5039,8.5898,8.6797,8.7265,8.75,8.75,8.75,8.75,8.75,8.75,8.75,8.75,8.8633,8.9609,8.9961,9.1211,9.2539,9.375,9.4375,9.5351,9.707,9.8008,9.9062,10.0508,10.1719,10.2617,10.3086,10.3515,10.3789,10.4219,10.4687,10.539,10.6211,10.6211,10.6601,10.75,10.75,10.7695,10.8008,10.8008,10.8008,10.8008,10.8008,10.8008,10.8008,10.8008,10.8008,10.8008,10.8008,10.8008,10.8008,10.8008,10.8008,10.8008,10.8008,10.8008,10.8008,10.8008,10.8008,10.8008,10.8008,10.8008,10.8008,10.8008,10.8008,10.8008,10.8008,10.8008,10.8008,10.8008,10.8008,10.8008,10.8008,10.8008,10.8008,10.8008,10.8008,10.8008,10.8008,10.8008,10.8008,10.8008,10.8008,10.8008,10.8008,10.8008,10.8008,10.8008,10.8008,10.8008,10.8008,10.8008,10.8008,10.8008,10.8008,10.8008,10.8008,10.8008,10.8008,10.8008,10.8008,10.8007,10.7998,10.7982,10.8003,10.802,10.802,10.802,8.2304,8.2929,8.3828,8.4687,8.5547,8.6445,8.7304,8.75,8.75,8.75,8.75,8.75,8.75,8.75,8.75,8.75,8.8906,9.0,9.0,9.1484,9.3008,9.414,9.4844,9.5976,9.789,9.9101,10.039,10.1914,10.2812,10.3594,10.4219,10.4687,10.4883,10.4883,10.5508,10.6289,10.7109,10.7109,10.7383,10.8008,10.8008,10.8008,10.8008,10.8008,10.8008,10.8008,10.8008,10.8008,10.8008,10.8008,10.8008,10.8008,10.8008,10.8008,10.8008,10.8008,10.8008,10.8008,10.8008,10.8008,10.8008,10.8008,10.8008,10.8008,10.8008,10.8008,10.8008,10.8008,10.8008,10.8008,10.8008,10.8008,10.8008,10.8008,10.8008,10.8008,10.8008,10.8008,10.8008,10.8008,10.8008,10.8008,10.8008,10.8008,10.8008,10.8008,10.8008,10.8008,10.8008,10.8008,10.8008,10.8008,10.8008,10.8008,10.8008,10.8008,10.8008,10.8008,10.8008,10.8008,10.8008,10.8008,10.8008,10.8008,10.8008,10.8008,10.8008,10.8003,10.7987,10.802,10.802,10.802,8.2304,8.2929,8.3828,8.4687,8.5547,8.6445,8.7304,8.75,8.75,8.75,8.75,8.75,8.75,8.75,8.75,8.75,8.8906,9.0,9.0,9.1484,9.3242,9.4961,9.5195,9.6211,9.875,10.0586,10.1914,10.2812,10.3711,10.4219,10.4219,10.5781,10.6719,10.6719,10.6719,10.7109,10.8008,10.8008,10.8008,10.8008,10.8008,10.8008,10.8008,10.8008,10.8008,10.8008,10.8008,10.8008,10.8008,10.8008,10.8008,10.8008,10.8008,10.8008,10.8008,10.8008,10.8008,10.8008,10.8008,10.8008,10.8008,10.8008,10.8008,10.8008,10.8008,10.8008,10.8008,10.8008,10.8008,10.8008,10.8008,10.8008,10.8008,10.8008,10.8008,10.8008,10.8008,10.8008,10.8008,10.8008,10.8008,10.8008,10.8008,10.8008,10.8008,10.8008,10.8008,10.8008,10.8008,10.8008,10.8008,10.8008,10.8008,10.8008,10.8008,10.8008,10.8008,10.8008,10.8008,10.8008,10.8008,10.8008,10.8008,10.8008,10.8008,10.8008,10.8008,10.8008,10.7998,10.802,10.802,10.802,8.3047,8.3828,8.4687,8.5586,8.6445,8.7148,8.7422,8.75,8.75,8.75,8.75,8.75,8.75,8.75,8.7695,8.8242,8.9258,9.0195,9.0781,9.2383,9.3906,9.5078,9.7265,9.9258,10.0586,10.1797,10.2812,10.3711,10.3984,10.4687,10.5781,10.6406,10.6719,10.6719,10.7304,10.7695,10.8008,10.8008,10.8008,10.8008,10.8008,10.8008,10.8008,10.8008,10.8008,10.8008,10.8008,10.8008,10.8008,10.8008,10.8008,10.8008,10.8008,10.8008,10.8008,10.8008,10.8008,10.8008,10.8008,10.8008,10.8008,10.8008,10.8008,10.8008,10.8008,10.8008,10.8008,10.8008,10.8008,10.8008,10.8008,10.8008,10.8008,10.8008,10.8008,10.8008,10.8008,10.8008,10.8008,10.8008,10.8008,10.8008,10.8008,10.8008,10.8008,10.8008,10.8008,10.8008,10.8008,10.8008,10.8008,10.8008,10.8008,10.8008,10.8008,10.8008,10.8008,10.8008,10.8008,10.8008,10.8008,10.8008,10.8008,10.8008,10.8008,10.8008,10.8008,10.8008,10.8007,10.8001,10.8003,10.802,8.3437,8.4258,8.5117,8.5976,8.6875,8.75,8.75,8.75,8.75,8.75,8.75,8.75,8.75,8.75,8.7773,8.8554,8.9414,9.0312,9.1172,9.2812,9.4453,9.5976,9.8594,10.0586,10.1484,10.2383,10.3281,10.4101,10.4492,10.5312,10.6601,10.6992,10.7187,10.7187,10.7695,10.8008,10.8008,10.8008,10.8008,10.8008,10.8008,10.8008,10.8008,10.8008,10.8008,10.8008,10.8008,10.8008,0.0,10.8008,10.8008,10.8008,10.8008,10.8008,10.8008,10.8008,10.8008,10.8008,10.8008,10.8008,10.8008,10.8008,10.8008,10.8008,10.8008,10.8008,10.8008,10.8008,10.8008,10.8008,10.8008,10.8008,10.8008,10.8008,10.8008,10.8008,10.8008,10.8008,10.8008,10.8008,10.8008,10.8008,10.8008,10.8008,10.8008,10.8008,10.8008,10.8008,10.8008,10.8008,10.8008,10.8008,10.8008,10.8008,10.8008,10.8008,10.8008,10.8008,10.8008,10.8008,10.8008,10.8008,10.8008,10.8008,10.8008,10.8008,10.8008,10.8008,10.8008,10.8008,10.7995,10.8016,0.0,8.4336,8.5195,8.6054,8.6914,8.75,8.75,8.75,0.0,0.0,0.0,0.0,0.0,0.0,0.0,8.8672,8.9531,9.0429,9.1367,9.3047,0.0,0.0,9.9375,10.0703,10.1601,10.25,10.3398,10.4219,10.5117,10.5898,10.6719,10.7617,10.8008,10.8008,10.8008,10.8008,10.8008,10.8008,10.8008,10.8008,10.8008,10.8008,10.8008,10.8008,10.8008,10.8008,10.8008,10.8008,10.8008,10.8008,10.8008,10.8008,10.8008,10.8008,10.8008,10.8008,10.8008,10.8008,10.8008,10.8008,10.8008,10.8008,10.8008,10.8008,10.8008,10.8008,10.8008,10.8008,10.8008,10.8008,10.8008,10.8008,10.8008,10.8008,10.8008,10.8008,10.8008,10.8008,10.8008,10.8008,10.8008,10.8008,10.8008,10.8008,10.8008,10.8008,10.8008,10.8008,10.8008,10.8008,10.8008,10.8008,10.8008,10.8008,10.8008,10.8008,10.8008,10.8008,10.8008,10.8008,10.8008,10.8008,10.8008,10.8008,10.8008,10.8008,10.8008,10.8008,10.8008,10.8008,10.8008,10.8005,8.4414,0.0,8.6094,8.6992,8.7344,8.75,0.0,0.0,0.0,0.0,0.0,0.0,0.0,0.0,0.0,0.0,0.0,9.1523,9.3086,0.0,0.0,9.9453,10.0586,10.1601,10.25,10.3398,10.4297,10.5117,10.6015,10.6797,10.7617,10.789,10.8008,10.8008,10.8008,10.8008,10.8008,10.8008,10.8008,10.8008,10.8008,10.8008,10.8008,10.8008,10.8008,10.8008,10.8008,10.8008,10.8008,10.8008,10.8008,10.8008,10.8008,10.8008,10.8008,10.8008,10.8008,10.8008,10.8008,10.8008,10.8008,10.8008,10.8008,10.8008,10.8008,10.8008,10.8008,10.8008,10.8008,10.8008,10.8008,10.8008,10.8008,10.8008,10.8008,10.8008,10.8008,10.8008,10.8008,10.8008,10.8008,10.8008,10.8008,10.8008,10.8008,10.8008,10.8008,10.8008,10.8008,10.8008,10.8008,10.8008,10.8008,10.8008,10.8008,10.8008,10.8008,10.8008,10.8008,10.8008,10.8008,10.8008,10.8008,10.8008,10.8008,10.8008,10.8008,10.8008,10.8008,10.8008,10.8008,10.8007,8.4765,8.5547,8.6406,8.7265,8.75,8.75,8.75,0.0,0.0,0.0,0.0,0.0,0.0,0.0,0.0,0.0,9.0742,0.0,0.0,0.0,9.8359,10.0117,10.1094,10.2109,10.3398,10.3906,10.4687,10.6015,10.6484,10.7109,10.8008,10.8008,10.8008,10.8008,10.8008,10.8008,10.8008,10.8008,10.8008,10.8008,10.8008,10.8008,10.8008,10.8008,10.8008,10.8008,10.8008,10.8008,10.8008,10.8008,10.8008,10.8008,10.8008,10.8008,10.8008,10.8008,10.8008,10.8008,10.8008,10.8008,10.8008,10.8008,10.8008,10.8008,10.8008,10.8008,10.8008,10.8008,10.8008,10.8008,10.8008,10.8008,10.8008,10.8008,10.8008,10.8008,10.8008,10.8008,10.8008,10.8008,10.8008,10.8008,10.8008,10.8008,10.8008,10.8008,10.8008,10.8008,10.8008,10.8008,10.8008,10.8008,10.8008,10.8008,10.8008,10.8008,10.8008,10.8008,10.8008,10.8008,10.8008,10.8008,10.8008,10.8008,10.8008,10.8008,10.8008,10.8008,10.8008,10.8008,10.8008,10.8008,8.4883,8.5625,8.6562,8.7304,8.75,8.75,8.75,0.0,0.0,0.0,0.0,0.0,0.0,0.0,0.0,0.0,0.0,0.0,9.4883,9.6875,9.8633,10.0117,10.1211,10.2383,10.3984,10.4297,10.5,10.6601,10.6797,10.7187,10.8008,10.8008,10.8008,10.8008,10.8008,10.8008,10.8008,10.8008,10.8008,10.8008,10.8008,10.8008,10.8008,10.8008,10.8008,10.8008,10.8008,10.8008,10.8008,10.8008,10.8008,10.8008,10.8008,10.8008,10.8008,10.8008,10.8008,10.8008,10.8008,10.8008,10.8008,10.8008,10.8008,10.8008,10.8008,10.8008,10.8008,10.8008,10.8008,10.8008,10.8008,10.8008,10.8008,10.8008,10.8008,10.8008,10.8008,10.8008,10.8008,10.8008,10.8008,10.8008,10.8008,10.8008,10.8008,10.8008,10.8008,10.8008,10.8008,10.8008,10.8008,10.8008,10.8008,10.8008,10.8008,10.8008,10.8008,10.8008,10.8008,10.8008,10.8008,10.8008,10.8008,10.8008,10.8008,10.8008,10.8008,10.8008,10.8008,10.8008,10.8008,10.8008,8.4883,8.6054,8.7344,8.7461,8.75,8.75,0.0,0.0,0.0,0.0,0.0,0.0,0.0,8.9219,9.0078,0.0,0.0,9.4726,0.0,0.0,10.0,10.0312,10.1719,10.3086,10.4101,10.4883,10.5703,10.6601,10.7383,10.789,10.8008,10.8008,10.8008,10.8008,10.8008,10.8008,10.8008,10.8008,10.8008,10.8008,10.8008,10.8008,10.8008,10.8008,10.8008,10.8008,10.8008,10.8008,10.8008,10.8008,10.8008,10.8008,10.8008,10.8008,10.8008,10.8008,10.8008,10.8008,10.8008,10.8008,10.8008,10.8008,10.8008,10.8008,10.8008,10.8008,10.8008,10.8008,10.8008,10.8008,10.8008,10.8008,10.8008,10.8008,10.8008,10.8008,10.8008,10.8008,10.8008,10.8008,10.8008,10.8008,10.8008,10.8008,10.8008,10.8008,10.8008,10.8008,10.8008,10.8008,10.8008,10.8008,10.8008,10.8008,10.8008,10.8008,10.8008,10.8008,10.8008,10.8008,10.8008,10.8008,10.8008,10.8008,10.8008,10.8008,10.8008,10.8008,10.8008,10.8008,10.8008,10.8008,8.5469,8.6523,8.75,8.75,8.75,8.75,0.0,0.0,0.0,0.0,0.0,0.0,0.0,0.0,9.0586,9.2422,0.0,9.5508,9.6406,9.8711,10.0508,0.0,10.2109,10.3398,10.4804,10.5312,10.6015,10.7304,10.7812,10.8008,10.8008,10.8008,10.8008,10.8008,10.8008,10.8008,10.8008,10.8008,10.8008,10.8008,10.8008,10.8008,10.8008,10.8008,10.8008,10.8008,10.8008,10.8008,10.8008,10.8008,10.8008,10.8008,10.8008,10.8008,10.8008,10.8008,10.8008,10.8008,10.8008,10.8008,10.8008,10.8008,10.8008,10.8008,10.8008,10.8008,10.8008,10.8008,10.8008,10.8008,10.8008,10.8008,10.8008,10.8008,10.8008,10.8008,10.8008,10.8008,10.8008,10.8008,10.8008,10.8008,10.8008,10.8008,10.8008,10.8008,10.8008,10.8008,10.8008,10.8008,10.8008,10.8008,10.8398,10.8711,10.8711,10.9101,10.8984,10.8086,10.8008,10.8008,10.8008,10.8008,10.8008,10.8008,10.8008,10.8008,10.8008,10.8008,10.8008,10.8008,10.8008,10.8008,8.5976,8.6836,8.75,0.0,0.0,0.0,0.0,0.0,0.0,0.0,0.0,0.0,0.0,9.0039,0.0,9.3554,9.4804,9.6015,9.75,9.9219,10.0586,10.1484,10.25,10.3789,10.539,10.5703,10.6406,10.789,10.8008,10.8008,10.8008,10.8008,10.8008,10.8008,10.8008,10.8008,10.8008,10.8008,10.8008,10.8008,10.8008,10.8008,10.8008,10.8008,10.8008,10.8008,10.8008,10.8008,10.8008,10.8008,10.8008,10.8008,10.8008,10.8008,10.8008,10.8008,10.8008,10.8008,10.8008,10.8008,10.8008,10.8008,10.8008,10.8008,10.8008,10.8008,10.8008,10.8008,10.8008,10.8008,10.8008,10.8008,10.8008,10.8008,10.8008,10.8008,10.8008,10.8008,10.8008,10.8008,10.8008,10.8008,10.8008,10.8008,10.8008,10.8008,10.8008,10.8008,10.8008,10.8203,10.8281,10.8281,10.9101,10.9609,10.9609,11.0195,11.0,10.8711,10.8593,10.8515,10.8281,10.8281,10.8203,10.8008,10.8008,10.8008,10.8008,10.8008,10.8008,10.8008,10.8008,10.8008,8.5976,8.6836,8.75,8.75,0.0,0.0,0.0,0.0,0.0,0.0,0.0,0.0,0.0,9.1953,9.3672,9.3867,9.5312,9.6719,9.7578,9.9219,10.0586,10.1484,10.3086,10.4492,10.539,10.6211,10.6992,10.789,10.8008,10.8008,10.8008,10.8008,10.8008,10.8008,10.8008,10.8008,10.8008,10.8008,10.8008,10.8008,10.8008,10.8008,10.8008,10.8008,10.8008,10.8008,10.8008,10.8008,10.8008,10.8008,10.8008,10.8008,10.8008,10.8008,10.8008,10.8008,10.8008,10.8008,10.8008,10.8008,10.8008,10.8008,10.8008,10.8008,10.8008,10.8008,10.8008,10.8008,10.8008,10.8008,10.8008,10.8008,10.8008,10.8008,10.8008,10.8008,10.8008,10.8008,10.8008,10.8008,10.8008,10.8008,10.8008,10.8008,10.8008,10.8008,10.8008,10.8008,10.8008,10.8711,10.9218,10.9218,11.0,11.0508,11.0508,11.0586,11.0508,11.039,11.039,11.0117,10.9218,10.9218,10.8789,10.8008,10.8008,10.8008,10.8008,10.8008,10.8008,10.8008,10.8008,10.8008,8.6758,8.7265,8.75,0.0,0.0,0.0,0.0,0.0,0.0,0.0,0.0,0.0,0.0,0.0,9.4062,9.4609,9.6133,9.7734,9.9101,10.039,10.1406,10.2304,10.3515,10.4492,10.539,10.6211,10.7109,10.789,10.8008,10.8008,10.8008,10.8008,10.8008,10.8008,10.8008,10.8008,10.8008,10.8008,10.8008,10.8008,10.8008,10.8008,10.8008,10.8008,10.8008,10.8008,10.8008,10.8008,10.8008,10.8008,10.8008,10.8008,10.8008,10.8008,10.8008,10.8008,10.8008,10.8008,10.8008,10.8008,10.8008,10.8008,10.8008,10.8008,10.8008,10.8008,10.8008,10.8008,10.8008,10.8008,10.8008,10.8008,10.8008,10.8008,10.8008,10.8008,10.8008,10.8008,10.8008,10.8008,10.8008,10.8008,10.8008,10.8008,10.8008,10.8008,10.8008,10.8203,10.8711,10.9101,10.9492,11.0117,11.0898,11.1601,11.2187,11.2187,11.2187,11.2187,11.1211,11.0508,11.0117,10.9609,10.9101,10.8789,10.8281,10.8008,10.8008,10.8008,10.8008,10.8008,10.8008,10.8008,8.7265,8.75,8.75,0.0,0.0,0.0,0.0,0.0,0.0,0.0,0.0,0.0,0.0,0.0,0.0,0.0,9.7031,9.8633,10.0117,10.1094,10.1914,10.2812,10.3906,10.4804,10.539,10.6484,10.7383,10.8008,10.8008,10.8008,10.8008,10.8008,10.8008,10.8008,10.8008,10.8008,10.8008,10.8008,10.8008,10.8008,10.8008,10.8008,10.8008,10.8008,10.8008,10.8008,10.8008,10.8008,10.8008,10.8008,10.8008,10.8008,10.8008,10.8008,10.8008,10.8008,10.8008,10.8008,10.8008,10.8008,10.8008,10.8008,10.8008,10.8008,10.8008,10.8008,10.8008,10.8008,10.8008,10.8008,10.8008,10.8008,10.8008,10.8008,10.8008,10.8008,10.8008,10.8008,10.8008,10.8008,10.8008,10.8008,10.8008,10.8008,10.8008,10.8008,10.8008,10.8281,10.9218,10.9492,11.0117,11.1289,11.1992,11.2617,11.3086,11.3203,11.3203,11.3203,11.2109,11.1289,11.1015,11.039,10.9883,10.9297,10.8711,10.8281,10.8008,10.8008,10.8008,10.8008,10.8008,10.8008,8.7265,8.75,0.0,0.0,0.0,0.0,0.0,0.0,0.0,0.0,0.0,0.0,0.0,0.0,0.0,9.6367,9.7929,9.9336,10.0195,10.1094,10.1914,10.2812,10.4414,10.5508,10.5508,10.6992,10.8008,10.8008,10.8008,10.8008,10.8008,10.8008,10.8008,10.8008,10.8008,10.8008,10.8008,10.8008,10.8008,10.8008,10.8008,10.8008,10.8008,10.8008,10.8008,10.8008,10.8008,10.8008,10.8008,10.8008,10.8008,10.8008,10.8008,10.8008,10.8008,10.8008,10.8008,10.8008,10.8008,10.8008,10.8008,10.8008,10.8008,10.8008,10.8008,10.8008,10.8008,10.8008,10.8008,10.8008,10.8008,10.8008,10.8008,10.8008,10.8008,10.8008,10.8008,10.8008,10.8008,10.8008,10.8008,10.8008,10.8008,10.8008,10.8008,10.8008,10.8008,10.8281,10.9218,11.0117,11.1289,11.3008,11.3203,11.3203,11.3203,11.3203,11.3203,11.3203,11.3203,11.2812,11.1914,11.1914,11.1093,10.9414,10.9297,10.8906,10.8008,10.8008,10.8008,10.8008,10.8008,10.8008,8.7422,8.75,0.0,0.0,0.0,0.0,0.0,0.0,0.0,0.0,0.0,0.0,0.0,0.0,0.0,9.7109,9.8789,10.0195,10.1094,10.1992,10.2812,10.3711,10.4804,10.5703,10.6289,10.7304,10.8008,10.8008,10.8008,10.8008,10.8008,10.8008,10.8008,10.8008,10.8008,10.8008,10.8008,10.8008,10.8008,10.8008,10.8008,10.8008,10.8008,10.8008,10.8008,10.8008,10.8008,10.8008,10.8008,10.8008,10.8008,10.8008,10.8008,10.8008,10.8008,10.8008,10.8008,10.8008,10.8008,10.8008,10.8008,10.8008,10.8008,10.8008,10.8008,10.8008,10.8008,10.8008,10.8008,10.8008,10.8008,10.8008,10.8008,10.8008,10.8008,10.8008,10.8008,10.8008,10.8008,10.8008,10.8008,10.8008,10.8008,10.8008,10.8008,10.8008,10.8515,10.9492,11.0898,11.1914,11.2617,11.3086,11.3203,11.3203,11.3203,11.3203,11.3203,11.3203,11.3203,11.3086,11.2812,11.2187,11.1718,11.1093,11.0508,10.9804,10.8906,10.8906,10.8593,10.8008,10.8008,10.8008,8.75,0.0,0.0,0.0,0.0,0.0,0.0,0.0,0.0,0.0,0.0,0.0,0.0,9.5117,0.0,9.7929,9.9375,10.0586,10.1484,10.2383,10.3203,10.4101,10.5,10.5781,10.6601,10.75,10.8008,10.8008,10.8008,10.8008,10.8008,10.8008,10.8008,10.8008,10.8008,10.8008,10.8008,10.8008,10.8008,10.8008,10.8008,10.8008,10.8008,10.8008,10.8008,10.8008,10.8008,10.8008,10.8008,10.8008,10.8008,10.8008,10.8008,10.8008,10.8008,10.8008,10.8008,10.8008,10.8008,10.8008,10.8008,10.8008,10.8008,10.8008,10.8008,10.8008,10.8008,10.8008,10.8008,10.8008,10.8008,10.8008,10.8008,10.8008,10.8008,10.8008,10.8008,10.8008,10.8008,10.8008,10.8008,10.8008,10.8008,10.8281,10.8515,10.8515,10.9609,11.0703,11.1797,11.2695,11.3203,11.3203,11.3203,11.3203,11.3203,11.3203,11.3203,11.3203,11.3203,11.3203,11.3203,11.2695,11.2304,11.1914,11.1406,11.0703,10.9804,10.9804,10.9492,10.8984,10.8711,10.8515,8.75,0.0,0.0,0.0,0.0,0.0,0.0,0.0,0.0,0.0,0.0,9.4179,9.5156,9.6015,9.7148,9.8828,9.9844,10.0703,10.1601,10.2383,10.3281,10.4219,10.5,10.5781,10.6719,10.75,10.8008,10.8008,10.8008,10.8008,10.8008,10.8008,10.8008,10.8008,10.8008,10.8008,10.8008,10.8008,10.8008,10.8008,10.8008,10.8008,10.8008,10.8008,10.8008,10.8008,10.8008,10.8008,10.8008,10.8008,10.8008,10.8008,10.8008,10.8008,10.8008,10.8086,10.8086,10.8086,10.8203,10.8203,10.8203,10.8203,10.8203,10.8086,10.8086,10.8086,10.8008,10.8008,10.8008,10.8008,10.8008,10.8008,10.8008,10.8008,10.8008,10.8008,10.8008,10.8008,10.8008,10.8008,10.8008,10.8008,10.8086,10.8789,10.9414,10.9492,11.0898,11.1914,11.1992,11.2695,11.3203,11.3203,11.3203,11.3203,11.3203,11.3203,11.3203,11.3203,11.3203,11.3203,11.3203,11.3203,11.2812,11.1992,11.1992,11.1601,11.0703,11.0703,11.0703,11.0586,10.9804,10.9414,8.75,8.75,0.0,0.0,8.8476,8.9726,9.0781,9.1679,9.2578,9.3437,9.3789,9.4375,9.5937,9.6875,9.8008,9.9726,10.0781,10.1601,10.25,10.2812,10.3515,10.5,10.539,10.6093,10.7617,10.789,10.8008,10.8008,10.8008,10.8008,10.8008,10.8008,10.8008,10.8008,10.8008,10.8008,10.8008,10.8008,10.8008,10.8008,10.8008,10.8008,10.8008,10.8008,10.8008,10.8008,10.8008,10.8008,10.8008,10.8008,10.8008,10.8008,10.8008,10.8008,10.8086,10.8789,10.8984,10.9101,10.9804,11.0,11.0,11.0,10.9609,10.8984,10.8984,10.8515,10.8008,10.8008,10.8008,10.8008,10.8008,10.8008,10.8008,10.8008,10.8008,10.8008,10.8008,10.8008,10.8008,10.8008,10.8008,10.8203,10.8906,10.9218,10.9804,11.1093,11.1718,11.2109,11.2812,11.3086,11.3203,11.3203,11.3203,11.3203,11.3203,11.3203,11.3203,11.3203,11.3203,11.3203,11.3203,11.3203,11.3086,11.289,11.289,11.25,11.1601,11.1601,11.1289,11.0586,11.039,11.0312,8.75,0.0,0.0,8.7969,0.0,9.0234,9.1094,9.2304,9.3476,9.4336,9.4531,9.4922,9.625,9.75,9.875,10.0117,10.1015,10.1914,10.2812,10.3281,10.3984,10.5312,10.5781,10.6601,10.789,10.8008,10.8008,10.8008,10.8008,10.8008,10.8008,10.8008,10.8008,10.8008,10.8008,10.8008,10.8008,10.8008,10.8008,10.8008,10.8008,10.8008,10.8008,10.8008,10.8008,10.8008,10.8008,10.8008,10.8008,10.8515,10.8593,10.8711,10.9101,10.9218,10.9297,10.9804,10.9883,11.0,11.039,11.0586,11.0586,11.0586,11.0312,10.9883,10.9883,10.9609,10.9218,10.9218,10.9218,10.9101,10.8711,10.8593,10.8515,10.8086,10.8008,10.8008,10.8008,10.8008,10.8086,10.8515,10.8593,10.8906,10.9804,11.0312,11.1015,11.2304,11.25,11.2695,11.3086,11.3203,11.3203,11.3203,11.3203,11.3203,11.3203,11.3203,11.3203,11.3203,11.3203,11.3203,11.3203,11.3203,11.3203,11.3203,11.3203,11.3008,11.25,11.25,11.2304,11.1797,11.1406,11.1211,8.75,8.75,8.7734,8.8672,8.9453,0.0,9.1289,9.2773,9.414,9.5039,9.5312,9.5742,9.6758,9.8203,9.9492,10.039,10.1289,10.2109,10.2812,10.3711,10.4492,10.539,10.6211,10.6992,10.789,10.8008,10.8008,10.8008,10.8008,10.8008,10.8008,10.8008,10.8008,10.8008,10.8008,10.8008,10.8008,10.8008,10.8008,10.8008,10.8008,10.8008,10.8008,10.8008,10.8008,10.8008,10.8203,10.8203,10.8281,10.9218,10.9492,10.9609,11.0312,11.0586,11.0586,11.0781,11.0781,11.0781,11.1015,11.1015,11.1015,11.1015,11.0898,11.0781,11.0781,11.0703,11.0586,11.0586,11.0586,11.039,10.9687,10.9492,10.9297,10.8593,10.8398,10.8398,10.8281,10.8281,10.8711,10.9414,10.9609,11.0,11.0703,11.1484,11.2383,11.3086,11.3203,11.3203,11.3203,11.3203,11.3203,11.3203,11.3203,11.3203,11.3203,11.3203,11.3203,11.3203,11.3203,11.3203,11.3203,11.3203,11.3203,11.3203,11.3203,11.3203,11.3203,11.3203,11.3203,11.3203,11.25,11.2109,8.75,8.75,8.7851,8.9453,8.9922,9.0429,9.207,9.3203,9.414,9.5039,9.5781,9.6797,9.8398,9.9453,10.039,10.1289,10.2187,10.2812,10.289,10.3711,10.4492,10.539,10.6211,10.6992,10.789,10.8008,10.8008,10.8008,10.8008,10.8008,10.8008,10.8008,10.8008,10.8008,10.8008,10.8008,10.8008,10.8008,10.8008,10.8008,10.8008,10.8008,10.8008,10.8008,10.8008,10.8008,10.8789,10.9101,10.9218,11.0117,11.039,11.039,11.0586,11.0586,11.0703,11.1406,11.1718,11.1797,11.2617,11.289,11.289,11.289,11.2304,11.1718,11.1718,11.1211,11.0586,11.0586,11.0586,11.0586,11.0508,11.039,11.039,11.0312,11.0312,11.0,10.9297,10.9687,11.0312,11.039,11.1015,11.1601,11.1718,11.2383,11.3086,11.3203,11.3203,11.3203,11.3203,11.3203,11.3203,11.3203,11.3203,11.3203,11.3203,11.3203,11.3203,11.3203,11.3203,11.3203,11.3203,11.3203,11.3203,11.3203,11.3203,11.3203,11.3203,11.3203,11.3203,11.3203,11.3086,11.3008,8.75,8.75,8.789,8.957,9.0,9.0469,9.2187,9.3633,9.4726,9.5117,9.664,9.8125,9.8867,9.9726,10.0586,10.1484,10.2304,10.3086,10.3594,10.4414,10.5195,10.6093,10.6914,10.7617,10.8008,10.8008,10.8008,10.8008,10.8008,10.8008,10.8008,10.8008,10.8008,10.8008,10.8008,10.8008,10.8008,10.8008,10.8008,10.8008,10.8008,10.8008,10.8008,10.8515,10.8711,10.8711,10.9101,10.9609,11.0117,11.1015,11.1289,11.1406,11.1914,11.2109,11.2109,11.25,11.2617,11.2695,11.3086,11.3203,11.3203,11.3203,11.289,11.2617,11.2617,11.2383,11.2109,11.2109,11.2109,11.1914,11.1484,11.1289,11.1211,11.0703,11.1015,11.1211,11.0781,11.0703,11.0703,11.1211,11.1992,11.2617,11.2617,11.289,11.3203,11.3203,11.3203,11.3203,11.3203,11.3203,11.3203,11.3203,11.3203,11.3203,11.3203,11.3203,11.3203,11.3203,11.3203,11.3203,11.3203,11.3203,11.3203,11.3203,11.3203,11.3203,11.3203,11.3203,11.3203,11.3203,11.3203,11.3203,8.75,8.75,8.789,8.957,9.0,9.0469,9.2187,9.3945,9.5195,9.5195,9.7226,9.9062,9.9297,10.0,10.0898,10.1797,10.25,10.3203,10.4101,10.5,10.5781,10.6601,10.75,10.8008,10.8008,10.8008,10.8008,10.8008,10.8008,10.8008,10.8008,10.8008,10.8008,10.8008,10.8008,10.8008,10.8008,10.8008,10.8008,10.8008,10.8008,10.8086,10.8398,10.8984,10.9492,11.0,11.0,11.0312,11.1015,11.1914,11.2187,11.2304,11.289,11.3203,11.3203,11.3203,11.3203,11.3203,11.3203,11.3203,11.3203,11.3203,11.3203,11.3203,11.3203,11.3203,11.3203,11.3203,11.3203,11.3086,11.2383,11.2187,11.2109,11.1406,11.1797,11.2187,11.2187,11.1718,11.1484,11.2109,11.2812,11.3203,11.3203,11.3203,11.3203,11.3203,11.3203,11.3203,11.3203,11.3203,11.3203,11.3203,11.3203,11.3203,11.3203,11.3203,11.3203,11.3203,11.3203,11.3203,11.3203,11.3203,11.3203,11.3203,11.3203,11.3203,11.3203,11.3203,11.3203,11.3203,11.3203,11.3203,8.75,8.75,8.789,8.957,9.0,9.0469,9.2187,9.3945,9.5195,9.5195,9.7226,9.9258,10.0117,10.0898,10.1797,10.2695,10.289,10.3203,10.4101,10.5,10.5781,10.6601,10.75,10.8008,10.8008,10.8008,10.8008,10.8008,10.8008,10.8008,10.8008,10.8008,10.8008,10.8008,10.8008,10.8008,10.8008,10.8008,10.8008,10.8008,10.8008,10.8398,10.9218,10.9297,11.0195,11.1797,11.1797,11.1797,11.1914,11.2812,11.3086,11.3086,11.3203,11.3203,11.3203,11.3203,11.3203,11.3203,11.3203,11.3203,11.3203,11.3203,11.3203,11.3203,11.3203,11.3203,11.3203,11.3203,11.3203,11.3203,11.3086,11.3086,11.3086,11.3086,11.3086,11.3086,11.3086,11.3086,11.3086,11.3086,11.3203,11.3203,11.3203,11.3203,11.3203,11.3203,11.3203,11.3203,11.3203,11.3203,11.3203,11.3203,11.3203,11.3203,11.3203,11.3203,11.3203,11.3203,11.3203,11.3203,11.3203,11.3203,11.3203,11.3203,11.3203,11.3203,11.3203,11.3203,11.3203,11.3203,11.3203,11.3203,8.75,8.75,8.789,8.957,9.0,9.0469,9.2187,9.3945,9.5195,9.5195,9.7656,9.9922,10.0195,10.1015,10.1914,10.2812,10.289,10.3398,10.4804,10.5312,10.6015,10.7383,10.7812,10.8008,10.8008,10.8008,10.8008,10.8008,10.8008,10.8008,10.8008,10.8008,10.8008,10.8008,10.8008,10.8008,10.8008,10.8008,10.8008,10.8008,10.8008,10.8515,10.9297,10.9883,11.0781,11.1914,11.25,11.2695,11.2812,11.3086,11.3203,11.3203,11.3203,11.3203,11.3203,11.3203,11.3203,11.3203,11.3203,11.3203,11.3203,11.3203,11.3203,11.3203,11.3203,11.3203,11.3203,11.3203,11.3203,11.3203,11.3203,11.3203,11.3203,11.3203,11.3203,11.3203,11.3203,11.3203,11.3203,11.3203,11.3203,11.3203,11.3203,11.3203,11.3203,11.3203,11.3203,11.3203,11.3203,11.3203,11.3203,11.3203,11.3203,11.3203,11.3203,11.3203,11.3203,11.3203,11.3203,11.3203,11.3203,11.3203,11.3203,11.3203,11.3203,11.3203,11.3203,11.3203,11.3203,11.3203,11.3203,11.3203,8.75,8.75,8.789,8.957,9.0,9.0469,9.2187,9.3945,9.5195,9.5195,9.7929,10.0312,10.0312,10.1289,10.2187,10.2812,10.289,10.3515,10.5312,10.5508,10.6093,10.7812,10.8008,10.8008,10.8008,10.8008,10.8008,10.8008,10.8008,10.8008,10.8008,10.8008,10.8008,10.8008,10.8008,10.8008,10.8008,10.8008,10.8008,10.8008,10.8281,10.8906,10.9804,11.0586,11.1484,11.2383,11.289,11.3203,11.3203,11.3203,11.3203,11.3203,11.3203,11.3203,11.3203,11.3203,11.3203,11.3203,11.3203,11.3203,11.3203,11.3203,11.3203,11.3203,11.3203,11.3203,11.3203,11.3203,11.3203,11.3203,11.3203,11.3203,11.3203,11.3203,11.3203,11.3203,11.3203,11.3203,11.3203,11.3203,11.3203,11.3203,11.3203,11.3203,11.3203,11.3203,11.3203,11.3203,11.3203,11.3203,11.3203,11.3203,11.3203,11.3203,11.3203,11.3203,11.3203,11.3203,11.3203,11.3203,11.3203,11.3203,11.3203,11.3203,11.3203,11.3203,11.3203,11.3203,11.3203,11.3203,11.3203,11.3203,0.0,0.0,0.0,8.957,9.0,9.0469,9.2187,9.3945,9.5195,9.5195,9.789,10.0312,10.0312,10.1719,10.289,10.289,10.289,10.3515,10.5312,10.5508,10.6093,10.7812,10.8008,10.8008,10.8008,10.8008,10.8008,10.8008,10.8008,10.8008,10.8008,10.8008,10.8008,10.8008,10.8008,10.8008,10.8008,10.8008,10.8008,10.8008,10.8906,10.9804,11.0586,11.1484,11.2383,11.3203,11.3203,11.3203,11.3203,11.3203,11.3203,11.3203,11.3203,11.3203,11.3203,11.3203,11.3203,11.3203,11.3203,11.3203,11.3203,11.3203,11.3203,11.3203,11.3203,11.3203,11.3203,11.3203,11.3203,11.3203,11.3203,11.3203,11.3203,11.3203,11.3203,11.3203,11.3203,11.3203,11.3203,11.3203,11.3203,11.3203,11.3203,11.3203,11.3203,11.3203,11.3203,11.3203,11.3203,11.3203,11.3203,11.3203,11.3203,11.3203,11.3203,11.3203,11.3203,11.3203,11.3203,11.3203,11.3203,11.3203,11.3203,11.3203,11.3203,11.3203,11.3203,11.3203,11.3203,11.3203,11.3203,11.3203,8.75,0.0,0.0,0.0,0.0,0.0,9.2187,9.3945,9.5195,9.5195,9.7422,9.9531,10.0195,10.1211,10.2187,10.2812,10.289,10.3515,10.5312,10.5508,10.6093,10.7812,10.8008,10.8008,10.8008,10.8008,10.8008,10.8008,10.8008,10.8008,10.8008,10.8008,10.8008,10.8008,10.8008,10.8008,10.8008,10.8008,10.8008,10.8008,10.8906,10.9804,11.0586,11.1484,11.2383,11.3203,11.3203,11.3203,11.3203,11.3203,11.3203,11.3203,11.3203,11.3203,11.3203,11.3203,11.3203,11.3203,11.3203,11.3203,11.3203,11.3203,11.3203,11.3203,11.3203,11.3203,11.3203,11.3203,11.3203,11.3203,11.3203,11.3203,11.3203,11.3203,11.3203,11.3203,11.3203,11.3203,11.3203,11.3203,11.3203,11.3203,11.3203,11.3203,11.3203,11.3203,11.3203,11.3203,11.3203,11.3203,11.3203,11.3203,11.3203,11.3203,11.3203,11.3203,11.3203,11.3203,11.3203,11.3203,11.3203,11.3203,11.3203,11.3203,11.3203,11.3203,11.3203,11.3203,11.3203,11.3203,11.3203,11.3203,0.0,0.0,0.0,0.0,0.0,0.0,9.2304,9.3945,9.5195,9.5195,9.7226,9.9258,10.0117,10.1015,10.1914,10.2812,10.289,10.3515,10.5312,10.5508,10.6093,10.7812,10.8008,10.8008,10.8008,10.8008,10.8008,10.8008,10.8008,10.8008,10.8008,10.8008,10.8008,10.8008,10.8008,10.8008,10.8008,10.8008,10.8008,10.8008,10.9297,11.0117,11.0586,11.1914,11.2695,11.3203,11.3203,11.3203,11.3203,11.3203,11.3203,11.3203,11.3203,11.3203,11.3203,11.3203,11.3203,11.3203,11.3203,11.3203,11.3203,11.3203,11.3203,11.3203,11.3203,11.3203,11.3203,11.3203,11.3203,11.3203,11.3203,11.3203,11.3203,11.3203,11.3203,11.3203,11.3203,11.3203,11.3203,11.3203,11.3203,11.3203,11.3203,11.3203,11.3203,11.3203,11.3203,11.3203,11.3203,11.3203,11.3203,11.3203,11.3203,11.3203,11.3203,11.3203,11.3203,11.3203,11.3203,11.3203,11.3203,11.3203,11.3203,11.3203,11.3203,11.3203,11.3203,11.3203,11.3203,11.3203,11.3203,11.3203,0.0,0.0,0.0,0.0,0.0,0.0,9.2383,9.3945,9.5195,9.5195,9.7148,9.914,10.0117,10.0898,10.1797,10.2695,10.289,10.3515,10.5117,10.539,10.6093,10.7695,10.789,10.8008,10.8008,10.8008,10.8008,10.8008,10.8008,10.8008,10.8008,10.8008,10.8008,10.8008,10.8008,10.8008,10.8008,10.8008,10.8008,10.8203,10.9804,11.0703,11.0781,11.2383,11.3203,11.3203,11.3203,11.3203,11.3203,11.3203,11.3203,11.3203,11.3203,11.3203,11.3203,11.3203,11.3203,11.3203,11.3203,11.3203,11.3203,11.3203,11.3203,11.3203,11.3203,11.3203,11.3203,11.3203,11.3203,11.3203,11.3203,11.3203,11.3203,11.3203,11.3203,11.3203,11.3203,11.3203,11.3203,11.3203,11.3203,11.3203,11.3203,11.3203,11.3203,11.3203,11.3203,11.3203,11.3203,11.3203,11.3203,11.3203,11.3203,11.3203,11.3203,11.3203,11.3203,11.3203,11.3203,11.3203,11.3203,11.3203,11.3203,11.3203,11.3203,11.3203,11.3203,11.3203,11.3203,11.3203,11.3203,11.3203,0.0,0.0,0.0,0.0,0.0,0.0,9.2383,9.3945,9.5195,9.5195,9.6679,9.8437,10.0,10.039,10.1094,10.2617,10.289,10.3281,10.4297,10.5117,10.5898,10.6797,10.7617,10.8008,10.8008,10.8008,10.8008,10.8008,10.8008,10.8008,10.8008,10.8008,10.8008,10.8008,10.8008,10.8008,10.8008,10.8008,10.8398,10.9101,11.0117,11.1015,11.1718,11.2695,11.3203,11.3203,11.3203,11.3203,11.3203,11.3203,11.3203,11.3203,11.3203,11.3203,11.3203,11.3203,11.3203,11.3203,11.3203,11.3203,11.3203,11.3203,11.3203,11.3203,11.3203,11.3203,11.3203,11.3203,11.3203,11.3203,11.3203,11.3203,11.3203,11.3203,11.3203,11.3203,11.3203,11.3203,11.3203,11.3203,11.3203,11.3203,11.3203,11.3203,11.3203,11.3203,11.3203,11.3203,11.3203,11.3203,11.3203,11.3203,11.3203,11.3203,11.3203,11.3203,11.3203,11.3203,11.3203,11.3203,11.3203,11.3203,11.3203,11.3203,11.3203,11.3203,11.3203,11.3203,11.3203,11.3203,11.3203,11.3203,0.0,0.0,0.0,9.1094,0.0,0.0,0.0,9.3945,9.5195,9.5195,9.6523,9.8086,9.9414,10.0,10.0703,10.1992,10.2617,10.3086,10.3515,10.4297,10.5312,10.6601,10.7109,10.75,10.8008,10.8008,10.8008,10.8008,10.8008,10.8008,10.8008,10.8008,10.8008,10.8008,10.8008,10.8008,10.789,10.789,10.8281,10.9101,11.0,11.0898,11.1797,11.2812,11.3203,11.3203,11.3203,11.3203,11.3203,11.3203,11.3203,11.3203,11.3203,11.3203,11.3203,11.3203,11.3203,11.3203,11.3203,11.3203,11.3203,11.3203,11.3203,11.3203,11.3203,11.3203,11.3203,11.3203,11.3203,11.3203,11.3203,11.3203,11.3203,11.3203,11.3203,11.3203,11.3203,11.3203,11.3203,11.3203,11.3203,11.3203,11.3203,11.3203,11.3203,11.3203,11.3203,11.3203,11.3203,11.3203,11.3203,11.3203,11.3203,11.3203,11.3203,11.3203,11.3203,11.3203,11.3203,11.3203,11.3203,11.3203,11.3203,11.3203,11.3203,11.3203,11.3203,11.3203,11.3203,11.3203,11.3203,11.3203,0.0,0.0,0.0,0.0,0.0,9.2617,0.0,0.0,0.0,9.5195,9.6523,9.7969,9.8828,9.9726,10.0508,10.1015,10.2109,10.2812,10.2383,10.3281,10.4492,10.6015,10.6484,10.6992,10.7695,10.789,10.8008,10.8008,10.8008,10.8008,10.8008,10.8008,10.8008,10.8008,10.8008,10.789,10.7812,10.7796,10.8205,10.9103,10.9884,11.0803,11.1797,11.2712,11.3086,11.3086,11.3108,11.3081,11.3086,11.3086,11.3203,11.3203,11.3203,11.3203,11.3203,11.3203,11.3203,11.3203,11.3203,11.3203,11.3203,11.3203,11.3203,11.3203,11.3203,11.3203,11.3203,11.3203,11.3203,11.3203,11.3203,11.3203,11.3203,11.3203,11.3203,11.3203,11.3203,11.3203,11.3203,11.3203,11.3203,11.3203,11.3203,11.3203,11.3203,11.3203,11.3203,11.3203,11.3203,11.3203,11.3203,11.3203,11.3203,11.3203,11.3203,11.3203,11.3203,11.3203,11.3203,11.3203,11.3203,11.3203,11.3203,11.3203,11.3203,11.3203,11.3203,11.3203,11.3203,11.3203,11.3203,11.3203,0.0,0.0,0.0,0.0,9.2539,0.0,0.0,0.0,9.5195,9.5195,0.0,9.7969,9.8828,0.0,0.0,9.9414,10.1289,10.2383,10.0781,10.1992,10.3398,10.4414,10.5781,10.6719,10.6797,10.75,10.8008,10.8008,10.8008,10.8008,10.8008,10.8008,10.8008,10.8008,10.789,10.7812,10.7812,10.7598,10.8288,11.0023,11.0119,11.1004,11.2499,11.2599,11.2678,11.2669,11.2679,11.2803,11.289,11.289,11.3008,11.3203,11.3203,11.3203,11.3203,11.3203,11.3203,11.3203,11.3203,11.3203,11.3203,11.3203,11.3203,11.3203,11.3203,11.3203,11.3203,11.3203,11.3203,11.3203,11.3203,11.3203,11.3203,11.3203,11.3203,11.3203,11.3203,11.3203,11.3203,11.3203,11.3203,11.3203,11.3203,11.3203,11.3203,11.3203,11.3203,11.3203,11.3203,11.3203,11.3203,11.3203,11.3203,11.3203,11.3203,11.3203,11.3203,11.3203,11.3203,11.3203,11.3203,11.3203,11.3203,11.3203,11.3203,11.3203,11.3203,11.3203,11.3203,11.3203,11.3203,11.3203,0.0,0.0,0.0,0.0,0.0,0.0,0.0,0.0,9.5937,0.0,0.0,0.0,0.0,0.0,0.0,0.0,10.1484,10.2617,10.1914,10.2383,10.3203,10.4101,10.4804,10.5586,10.6601,10.75,10.8008,10.8008,10.8008,10.8008,10.8008,10.8008,10.8008,10.789,10.7812,10.7697,10.75,10.7386,10.8111,10.9808,10.9896,11.0799,11.2503,11.2592,11.2604,11.26,11.2612,11.2594,11.2698,11.2697,11.2819,11.3008,11.3008,11.3086,11.3203,11.3203,11.3203,11.3203,11.3203,11.3203,11.3203,11.3203,11.3203,11.3203,11.3203,11.3203,11.3203,11.3203,11.3203,11.3203,11.3203,11.3203,11.3203,11.3203,11.3203,11.3203,11.3203,11.3203,11.3203,11.3203,11.3203,11.3203,11.3203,11.3203,11.3203,11.3203,11.3203,11.3203,11.3203,11.3203,11.3203,11.3203,11.3203,11.3203,11.3203,11.3203,11.3203,11.3203,11.3203,11.3203,11.3203,11.3203,11.3203,11.3203,11.3203,11.3203,11.3203,11.3203,11.3203,11.3203,11.3203,11.3203,9.3242,0.0,0.0,0.0,0.0,0.0,0.0,0.0,0.0,0.0,0.0,0.0,0.0,0.0,0.0,0.0,0.0,10.2695,10.2304,10.2617,10.3086,10.3789,10.4297,10.5117,10.6601,10.75,10.8008,10.8008,10.8008,10.8008,10.8008,10.8008,10.789,10.7812,10.7703,10.7511,10.7221,10.7189,10.7802,10.9195,10.9476,11.052,11.2024,11.2295,11.2488,11.2488,11.2488,11.2488,11.2484,11.2492,11.2693,11.2813,11.2819,11.2908,11.299,11.3202,11.3203,11.3203,11.3203,11.3203,11.3203,11.3203,11.3203,11.3203,11.3203,11.3203,11.3203,11.3203,11.3203,11.3203,11.3203,11.3203,11.3203,11.3203,11.3203,11.3203,11.3203,11.3203,11.3203,11.3203,11.3203,11.3203,11.3203,11.3203,11.3203,11.3203,11.3203,11.3203,11.3203,11.3203,11.3203,11.3203,11.3203,11.3203,11.3203,11.3203,11.3203,11.3203,11.3203,11.3203,11.3203,11.3203,11.3203,11.3203,11.3203,11.3203,11.3203,11.3203,11.3203,11.3203,11.3203,11.3203,0.0,0.0,0.0,9.5117,0.0,0.0,0.0,0.0,9.6484,0.0,0.0,0.0,0.0,0.0,0.0,0.0,0.0,0.0,0.0,10.1797,10.289,10.289,10.4414,10.5781,10.6601,10.75,10.8008,10.8008,10.8008,10.8008,10.8008,10.789,10.7812,10.7812,10.7402,10.7215,10.7189,10.7111,10.7498,10.8305,10.9089,11.0017,11.0906,11.1714,11.2101,11.2101,11.2101,11.2217,11.2411,11.2406,11.2484,11.2583,11.2599,11.2593,11.2703,11.3108,11.3203,11.3203,11.3203,11.3203,11.3203,11.3203,11.3203,11.3203,11.3203,11.3203,11.3203,11.3203,11.3203,11.3203,11.3203,11.3203,11.3203,11.3203,11.3203,11.3203,11.3203,11.3203,11.3203,11.3203,11.3203,11.3203,11.3203,11.3203,11.3203,11.3203,11.3203,11.3203,11.3203,11.3203,11.3203,11.3203,11.3203,11.3203,11.3203,11.3203,11.3203,11.3203,11.3203,11.3203,11.3203,11.3203,11.3203,11.3203,11.3203,11.3203,11.3203,11.3203,11.3203,11.3203,11.3203,11.3203,0.0,0.0,9.5195,9.5195,0.0,0.0,0.0,0.0,0.0,0.0,0.0,0.0,0.0,0.0,0.0,0.0,0.0,0.0,0.0,10.25,10.289,10.289,10.3906,10.5,10.5781,10.6719,10.7383,10.8008,10.8008,10.8008,10.8008,10.789,10.7691,10.7615,10.7319,10.7189,10.7111,10.6995,10.7382,10.8305,10.9117,11.0012,11.079,11.1714,11.2101,11.2101,11.2101,11.2101,11.2217,11.2217,11.2295,11.2522,11.2514,11.2525,11.2581,11.282,11.2891,11.3008,11.3203,11.3203,11.3203,11.3203,11.3203,11.3203,11.3203,11.3203,11.3203,11.3203,11.3203,11.3203,11.3203,11.3203,11.3203,11.3203,11.3203,11.3203,11.3203,11.3203,11.3203,11.3203,11.3203,11.3203,11.3203,11.3203,11.3203,11.3203,11.3203,11.3203,11.3203,11.3203,11.3203,11.3203,11.3203,11.3203,11.3203,11.3203,11.3203,11.3203,11.3203,11.3203,11.3203,11.3203,11.3203,11.3203,11.3203,11.3203,11.3203,11.3203,11.3203,11.3203,11.3203,11.3203,9.6914,9.6992,0.0,9.6992,9.7422,0.0,9.7851,0.0,0.0,0.0,0.0,0.0,0.0,0.0,0.0,0.0,0.0,0.0,0.0,10.289,10.289,10.289,10.3711,10.4414,10.5,10.6015,10.6914,10.75,10.7812,10.789,10.8008,10.7812,10.7593,10.7524,10.7305,10.7111,10.6995,10.6995,10.7305,10.7918,10.9001,10.9814,11.0404,11.1598,11.2101,11.2101,11.2101,11.2101,11.2101,11.2101,11.2217,11.2295,11.2295,11.2295,11.2401,11.2595,11.2683,11.289,11.3008,11.3086,11.3203,11.3203,11.3203,11.3203,11.3203,11.3203,11.3281,11.3593,11.3398,11.3281,11.3593,11.3398,11.3203,11.3203,11.3203,11.3203,11.3203,11.3203,11.3203,11.3203,11.3203,11.3203,11.3203,11.3203,11.3203,11.3203,11.3203,11.3203,11.3203,11.3203,11.3203,11.3203,11.3203,11.3203,11.3203,11.3203,11.3203,11.3203,11.3203,11.3203,11.3203,11.3203,11.3086,11.2695,11.3008,11.3008,11.2695,11.3008,11.3203,11.3203,11.3203,11.3203]},{"header":{"parameterUnit":"m.s-1","parameterCategory":1,"la1":30.6,"la2":29.2853,"lo1":-89.7004,"lo2":-87.6739,"dy":0.0162,"dx":0.0183,"nx":112,"ny":82,"refTime":"2023-03-14T06:00:00:Z","depth":0,"parameterNumber":3,"parameterNumberName":"V-component_of_WINDS"},"data":[0.0,0.0,0.0,0.0,0.0,0.0,0.0,0.0,0.0,0.0,0.0,0.0,0.0,0.0,0.0,0.0,0.0,0.0,0.0,0.0,0.0,0.0,0.0,0.0,0.0,0.0,0.0,0.0,0.0,0.0,0.0,0.0,0.0,0.0,0.0,0.0,0.0,0.0,0.0,0.0,0.0,0.0,0.0,0.0,0.0,0.0,0.0,0.0,0.0,0.0,0.0,0.0,0.0,0.0,0.0,0.0,0.0,0.0,0.0,0.0,0.0,0.0,0.0,0.0,0.0,0.0,0.0,0.0,0.0,0.0,0.0,0.0,0.0,0.0,0.0,0.0,0.0,0.0,0.0,0.0,0.0,0.0,0.0,0.0,0.0,0.0,0.0,0.0,0.0,0.0,0.0,-1.2567,-0.9555,-0.6211,-0.3027,-0.2692,-0.3363,-0.487,0.0,0.0,0.0,0.0,0.0,0.0,0.0,0.0,0.0,0.0,0.0,0.0,0.0,0.0,0.0,0.0,0.0,0.0,0.0,0.0,0.0,0.0,0.0,0.0,0.0,0.0,0.0,0.0,0.0,0.0,0.0,0.0,0.0,0.0,0.0,0.0,0.0,0.0,0.0,0.0,0.0,0.0,0.0,0.0,0.0,0.0,0.0,0.0,0.0,0.0,0.0,0.0,0.0,0.0,0.0,0.0,0.0,0.0,0.0,0.0,0.0,0.0,0.0,0.0,0.0,0.0,0.0,0.0,0.0,0.0,0.0,0.0,0.0,0.0,0.0,0.0,0.0,0.0,0.0,0.0,0.0,0.0,0.0,0.0,0.0,0.0,0.0,0.0,0.0,0.0,0.0,0.0,0.0,0.0,0.0,0.0,0.0,0.0,0.0,0.0,0.0,0.0,0.0,0.0,-1.2229,-0.9221,-0.7045,-0.5038,-0.2861,-0.2692,-0.2861,-0.3027,0.0,0.0,0.0,0.0,0.0,0.0,0.0,0.0,0.0,0.0,0.0,0.0,0.0,0.0,0.0,0.0,0.0,0.0,0.0,0.0,0.0,0.0,0.0,0.0,0.0,0.0,0.0,0.0,0.0,0.0,0.0,0.0,0.0,0.0,0.0,0.0,0.0,0.0,0.0,0.0,0.0,0.0,0.0,0.0,0.0,0.0,0.0,0.0,0.0,0.0,0.0,0.0,0.0,0.0,0.0,0.0,0.0,0.0,0.0,0.0,0.0,0.0,0.0,0.0,0.0,0.0,0.0,0.0,0.0,0.0,0.0,0.0,0.0,0.0,0.0,0.0,0.0,0.0,0.0,0.0,0.0,0.0,0.0,0.0,0.0,0.0,0.0,0.0,0.0,0.0,0.0,0.0,0.0,0.0,0.0,0.0,0.0,0.0,0.0,0.0,0.0,0.0,0.0,-1.1896,-1.0554,-0.7045,-0.5873,-0.4703,-0.2861,-0.2692,-0.2692,-0.2692,-0.353,0.0,0.0,0.0,0.0,0.0,0.0,0.0,0.0,0.0,0.0,0.0,0.0,0.0,0.0,0.0,0.0,0.0,0.0,0.0,0.0,0.0,0.0,0.0,0.0,0.0,0.0,0.0,0.0,0.0,0.0,0.0,0.0,0.0,0.0,0.0,0.0,0.0,0.0,0.0,0.0,0.0,0.0,0.0,0.0,0.0,0.0,0.0,0.0,0.0,0.0,0.0,0.0,0.0,0.0,0.0,0.0,0.0,0.0,0.0,0.0,0.0,0.0,0.0,0.0,0.0,0.0,0.0,0.0,0.0,0.0,0.0,0.0,0.0,0.0,0.0,0.0,0.0,0.0,0.0,0.0,0.0,0.0,0.0,0.0,0.0,0.0,0.0,0.0,0.0,0.0,0.0,0.0,0.0,0.0,0.0,0.0,0.0,0.0,0.0,0.0,0.0,0.0,-0.9888,-0.8386,-0.5726,-0.5056,-0.4221,-0.2882,-0.2714,-0.2714,-0.2714,-0.2707,0.0,0.0,0.0,0.0,0.0,0.0,0.0,0.0,0.0,0.0,0.0,0.0,0.0,0.0,0.0,0.0,0.0,0.0,0.0,0.0,0.0,0.0,0.0,0.0,0.0,0.0,0.0,0.0,0.0,0.0,0.0,0.0,0.0,0.0,0.0,0.0,0.0,0.0,0.0,0.0,0.0,0.0,0.0,0.0,0.0,0.0,0.0,0.0,0.0,0.0,0.0,0.0,0.0,0.0,0.0,0.0,0.0,0.0,0.0,0.0,0.0,0.0,0.0,0.0,0.0,0.0,0.0,0.0,0.0,0.0,0.0,0.0,0.0,0.0,0.0,0.0,0.0,0.0,0.0,0.0,0.0,0.0,0.0,0.0,0.0,0.0,0.0,0.0,0.0,0.0,0.0,0.0,0.0,0.0,0.0,0.0,0.0,0.0,0.0,0.0,0.0,0.0,-0.7877,-0.5729,-0.545,-0.3926,-0.2917,-0.2774,-0.2777,-0.2777,-0.2777,-0.275,0.0,0.0,0.0,0.0,0.0,0.0,0.0,0.0,0.0,0.0,0.0,0.0,0.0,0.0,0.0,0.0,0.0,0.0,0.0,0.0,0.0,0.0,0.0,0.0,0.0,0.0,0.0,0.0,0.0,0.0,0.0,0.0,0.0,0.0,0.0,0.0,0.0,0.0,0.0,0.0,0.0,0.0,0.0,0.0,0.0,0.0,0.0,0.0,0.0,0.0,0.0,0.0,0.0,0.0,0.0,0.0,0.0,0.0,0.0,0.0,0.0,0.0,0.0,0.0,0.0,0.0,0.0,0.0,0.0,0.0,0.0,0.0,0.0,0.0,0.0,0.0,0.0,0.0,0.0,0.0,0.0,0.0,0.0,0.0,0.0,0.0,0.0,0.0,0.0,0.0,0.0,0.0,0.0,0.0,0.0,0.0,0.0,0.0,0.0,0.0,0.0,0.0,-0.6947,-0.4942,0.0,-0.311,-0.277,-0.2782,-0.2784,-0.2784,-0.2784,0.0,0.0,0.0,0.0,0.0,0.0,0.0,0.0,0.0,0.0,0.0,0.0,0.0,0.0,0.0,0.0,0.0,0.0,0.0,0.0,0.0,0.0,0.0,0.0,0.0,0.0,0.0,0.0,0.0,0.0,0.0,0.0,0.0,0.0,0.0,0.0,0.0,0.0,0.0,0.0,0.0,0.0,0.0,0.0,0.0,0.0,0.0,0.0,0.0,0.0,0.0,0.0,0.0,0.0,0.0,0.0,0.0,0.0,0.0,0.0,0.0,0.0,0.0,0.0,0.0,0.0,0.0,0.0,0.0,0.0,0.0,0.0,0.0,0.0,0.0,0.0,0.0,0.0,0.0,0.0,0.0,0.0,0.0,0.0,0.0,0.0,0.0,0.0,0.0,0.0,0.0,0.0,0.0,0.0,0.0,0.0,0.0,0.0,0.0,0.0,0.0,0.0,-0.8377,-0.6001,-0.414,0.0,-0.2797,-0.2801,-0.2811,-0.2812,-0.2812,-0.2812,0.0,0.0,0.0,0.0,0.0,0.0,0.0,0.0,0.0,0.0,0.0,0.0,0.0,0.0,0.0,0.0,0.0,0.0,0.0,0.0,0.0,0.0,0.0,0.0,0.0,0.0,0.0,0.0,0.0,0.0,0.0,0.0,0.0,0.0,0.0,0.0,0.0,0.0,0.0,0.0,0.0,0.0,0.0,0.0,0.0,0.0,0.0,0.0,0.0,0.0,0.0,0.0,0.0,0.0,0.0,0.0,0.0,0.0,0.0,0.0,0.0,0.0,0.0,0.0,0.0,0.0,0.0,0.0,0.0,0.0,0.0,0.0,0.0,0.0,0.0,0.0,0.0,0.0,0.0,0.0,0.0,0.0,0.0,0.0,0.0,0.0,0.0,0.0,0.0,0.0,0.0,0.0,0.0,0.0,0.0,0.0,0.0,0.0,0.0,0.0,0.0,0.0,-0.8305,-0.5036,-0.2796,-0.2826,-0.2829,-0.2841,-0.2871,-0.2874,-0.2874,0.0,0.0,0.0,0.0,0.0,0.0,0.0,0.0,0.0,0.0,0.0,0.0,0.0,0.0,0.0,0.0,0.0,0.0,0.0,0.0,0.0,0.0,0.0,0.0,0.0,0.0,0.0,0.0,0.0,0.0,0.0,0.0,0.0,0.0,0.0,0.0,0.0,0.0,0.0,0.0,0.0,0.0,0.0,0.0,0.0,0.0,0.0,0.0,0.0,0.0,0.0,0.0,0.0,0.0,0.0,0.0,0.0,0.0,0.0,0.0,0.0,0.0,0.0,0.0,0.0,0.0,0.0,0.0,0.0,0.0,0.0,0.0,0.0,0.0,0.0,0.0,0.0,0.0,0.0,0.0,0.0,0.0,0.0,0.0,0.0,0.0,0.0,0.0,0.0,0.0,0.0,0.0,0.0,0.0,0.0,0.0,0.0,0.0,0.0,0.0,0.0,0.0,0.0,-0.6479,-0.4218,-0.2827,-0.2857,-0.286,-0.2864,-0.2874,-0.2874,-0.2874,-0.2874,0.0,0.0,0.0,0.0,0.0,0.0,0.0,0.0,0.0,0.0,0.0,0.0,0.0,0.0,0.0,0.0,0.0,0.0,0.0,0.0,0.0,0.0,0.0,0.0,0.0,0.0,0.0,0.0,0.0,0.0,0.0,0.0,0.0,0.0,0.0,0.0,0.0,0.0,0.0,0.0,0.0,0.0,0.0,0.0,0.0,0.0,0.0,0.0,0.0,0.0,0.0,0.0,0.0,0.0,0.0,0.0,0.0,0.0,0.0,0.0,0.0,0.0,0.0,0.0,0.0,0.0,0.0,0.0,0.0,0.0,0.0,0.0,0.0,0.0,0.0,0.0,0.0,0.0,0.0,0.0,0.0,0.0,0.0,0.0,0.0,0.0,0.0,0.0,0.0,0.0,0.0,0.0,0.0,0.0,0.0,0.0,0.0,0.0,0.0,0.0,0.0,0.0,-0.567,-0.3909,-0.2853,-0.2872,-0.2874,-0.2874,-0.2874,-0.2874,-0.2874,-0.2874,0.0,0.0,0.0,0.0,0.0,0.0,0.0,0.0,0.0,0.0,0.0,0.0,0.0,0.0,0.0,0.0,0.0,0.0,0.0,0.0,0.0,0.0,0.0,0.0,0.0,0.0,0.0,0.0,0.0,0.0,0.0,0.0,0.0,0.0,0.0,0.0,0.0,0.0,0.0,0.0,0.0,0.0,0.0,0.0,0.0,0.0,0.0,0.0,0.0,0.0,0.0,0.0,0.0,0.0,0.0,0.0,0.0,0.0,0.0,0.0,0.0,0.0,0.0,0.0,0.0,0.0,0.0,0.0,0.0,0.0,0.0,0.0,0.0,0.0,0.0,0.0,0.0,0.0,0.0,0.0,0.0,0.0,0.0,0.0,0.0,0.0,0.0,0.0,0.0,0.0,0.0,0.0,0.0,0.0,0.0,0.0,0.0,0.0,0.0,0.0,0.0,0.0,-0.537,-0.3947,-0.2874,-0.2874,-0.2874,-0.2874,-0.2874,-0.2874,-0.2874,-0.2874,0.0,0.0,0.0,0.0,0.0,0.0,0.0,0.0,0.0,0.0,0.0,0.0,0.0,0.0,0.0,0.0,0.0,0.0,0.0,0.0,0.0,0.0,0.0,0.0,0.0,0.0,0.0,0.0,0.0,0.0,0.0,0.0,0.0,0.0,0.0,0.0,0.0,0.0,0.0,0.0,0.0,0.0,0.0,0.0,0.0,0.0,0.0,0.0,0.0,0.0,0.0,0.0,0.0,0.0,0.0,0.0,0.0,0.0,0.0,0.0,-0.2692,-0.2692,0.0,0.0,0.0,0.0,0.0,0.0,0.0,0.0,0.0,0.0,0.0,0.0,0.0,0.0,0.0,0.0,0.0,0.0,0.0,0.0,0.0,0.0,0.0,0.0,0.0,0.0,0.0,0.0,0.0,0.0,0.0,0.0,0.0,0.0,0.0,0.0,0.0,0.0,0.0,0.0,-0.3768,-0.3233,-0.2874,-0.2874,-0.2874,-0.2874,-0.2874,-0.2874,-0.2874,-0.2874,-0.2874,0.0,0.0,0.0,0.0,0.0,0.0,0.0,0.0,0.0,0.0,0.0,0.0,0.0,0.0,0.0,0.0,0.0,0.0,0.0,0.0,0.0,0.0,0.0,0.0,0.0,0.0,0.0,0.0,0.0,0.0,0.0,0.0,0.0,0.0,0.0,0.0,0.0,0.0,0.0,0.0,0.0,0.0,0.0,0.0,0.0,0.0,0.0,0.0,0.0,0.0,0.0,0.0,0.0,0.0,0.0,0.0,0.0,0.0,0.0,-0.2692,-0.2692,0.0,0.0,0.0,0.0,0.0,0.0,0.0,0.0,0.0,0.0,0.0,0.0,0.0,0.0,0.0,0.0,0.0,0.0,0.0,0.0,0.0,0.0,0.0,0.0,0.0,0.0,0.0,0.0,0.0,0.0,0.0,0.0,0.0,0.0,0.0,0.0,0.0,0.0,0.0,0.0,-0.3053,-0.2874,-0.2874,-0.2874,-0.2874,-0.2874,-0.2874,-0.2874,-0.2874,-0.2874,-0.2874,0.0,0.0,0.0,0.0,0.0,0.0,0.0,0.0,0.0,0.0,0.0,0.0,0.0,0.0,0.0,0.0,0.0,0.0,0.0,0.0,0.0,0.0,0.0,0.0,0.0,0.0,0.0,0.0,0.0,0.0,0.0,0.0,0.0,0.0,0.0,0.0,0.0,0.0,0.0,0.0,0.0,0.0,0.0,0.0,0.0,0.0,0.0,0.0,0.0,0.0,0.0,0.0,0.0,-0.2692,-0.2692,-0.2692,-0.2698,-0.2701,-0.2701,-0.2706,-0.2702,-0.2692,-0.2692,0.0,0.0,0.0,0.0,0.0,0.0,0.0,0.0,0.0,0.0,0.0,0.0,0.0,0.0,0.0,0.0,0.0,0.0,0.0,0.0,0.0,0.0,-0.3096,-0.4689,-0.3834,-0.3662,-0.6621,0.0,0.0,0.0,0.0,0.0,0.0,0.0,0.0,0.0,0.0,0.0,-0.2881,-0.2882,-0.2883,-0.2889,-0.2889,-0.2889,-0.2889,-0.2889,-0.2889,-0.2889,-0.2885,-0.2882,0.0,0.0,0.0,0.0,0.0,0.0,0.0,0.0,0.0,0.0,0.0,0.0,0.0,0.0,0.0,0.0,0.0,0.0,0.0,0.0,0.0,0.0,0.0,0.0,0.0,0.0,0.0,0.0,0.0,0.0,0.0,0.0,-0.2597,-0.2601,0.0,0.0,0.0,0.0,0.0,0.0,0.0,0.0,0.0,0.0,0.0,0.0,0.0,-0.2692,-0.2692,-0.2692,-0.2692,-0.2692,-0.2692,-0.2692,-0.2694,-0.272,-0.2732,-0.2733,-0.2759,0.0,-0.2692,-0.2692,0.0,0.0,0.0,0.0,0.0,0.0,0.0,0.0,0.0,0.0,0.0,0.0,0.0,0.0,0.0,0.0,0.0,0.0,0.0,0.0,0.0,0.0,-0.2785,-0.3167,-0.2998,-0.3005,-0.339,-0.4575,-0.5048,-0.3694,-0.4753,-0.5299,0.0,0.0,0.0,0.0,0.0,0.0,-0.2906,-0.2911,-0.292,-0.2947,-0.295,-0.295,-0.295,-0.295,-0.295,-0.295,-0.2926,-0.2911,-0.2911,-0.2887,0.0,0.0,0.0,0.0,0.0,0.0,0.0,0.0,0.0,0.0,0.0,0.0,0.0,0.0,0.0,0.0,0.0,0.0,0.0,0.0,0.0,0.0,0.0,0.0,0.0,0.0,0.0,0.0,0.0,-0.2619,-0.2634,-0.265,-0.2664,-0.2672,0.0,0.0,0.0,0.0,0.0,0.0,0.0,0.0,0.0,-0.2692,-0.2692,-0.2692,-0.2692,-0.271,-0.2718,-0.2718,-0.2735,-0.2743,-0.2744,-0.2758,-0.2763,-0.2763,-0.2777,-0.2769,-0.2743,-0.2743,-0.2751,-0.2763,0.0,0.0,0.0,0.0,-0.2784,-0.2784,-0.2784,-0.2784,-0.2784,-0.2784,0.0,0.0,0.0,0.0,0.0,0.0,0.0,-0.2787,-0.2804,-0.2808,-0.2816,-0.2846,-0.2855,-0.2857,-0.2871,-0.3565,-0.3721,-0.3029,-0.3565,-0.3748,-0.305,-0.2874,0.0,0.0,0.0,-0.2908,-0.2938,-0.2942,-0.2946,-0.296,-0.2961,-0.2961,-0.2961,-0.2961,-0.2961,-0.2961,-0.2949,-0.2942,-0.2942,-0.293,-0.2915,0.0,0.0,0.0,0.0,0.0,0.0,0.0,0.0,0.0,0.0,0.0,0.0,0.0,0.0,0.0,0.0,0.0,0.0,0.0,0.0,0.0,0.0,0.0,0.0,0.0,0.0,0.0,0.0,-0.2653,-0.2667,-0.269,-0.2692,-0.2692,0.0,0.0,0.0,0.0,0.0,0.0,-0.2692,-0.2692,-0.2697,-0.2703,-0.2703,-0.2707,-0.2716,-0.2739,-0.275,-0.275,-0.2773,-0.2784,-0.2784,-0.2791,-0.2795,-0.2796,-0.2803,-0.2807,-0.2806,-0.2789,-0.2788,-0.2795,-0.2795,-0.28,-0.2807,-0.2807,-0.2807,-0.2807,-0.2807,-0.2807,-0.2807,-0.2807,-0.2807,-0.2807,-0.2807,0.0,0.0,0.0,0.0,-0.2811,-0.2834,-0.284,-0.2846,-0.2868,-0.2874,-0.2876,-0.2883,-0.2885,-0.2883,-0.2875,-0.2881,-0.2885,-0.2885,-0.2891,0.0,-0.2924,0.0,-0.2939,-0.2969,-0.2973,-0.2976,-0.2984,-0.2984,-0.2984,-0.2984,-0.2984,-0.2984,-0.2984,-0.2977,-0.2973,-0.2973,-0.2965,-0.295,-0.2928,0.0,0.0,0.0,0.0,0.0,0.0,0.0,0.0,0.0,0.0,0.0,0.0,0.0,0.0,0.0,0.0,0.0,0.0,0.0,0.0,0.0,0.0,0.0,0.0,0.0,0.0,0.0,0.0,0.0,-0.2692,-0.2692,0.0,0.0,0.0,0.0,-0.2692,-0.2692,-0.2692,-0.2692,-0.2692,-0.2706,-0.2735,-0.2735,-0.275,-0.2778,-0.278,-0.2781,-0.2781,-0.2782,-0.2784,-0.2784,-0.2814,-0.2826,-0.2827,-0.2857,-0.287,-0.2866,-0.2807,-0.28,-0.2826,-0.2826,-0.2844,-0.287,-0.287,-0.287,-0.287,-0.287,-0.287,-0.287,-0.287,-0.287,-0.287,-0.287,-0.287,0.0,0.0,-0.287,-0.287,-0.2871,-0.2871,-0.2872,-0.2874,-0.2874,-0.2882,-0.2908,-0.2913,-0.2905,-0.2879,-0.2896,-0.2913,-0.2913,0.0,-0.2957,-0.2958,-0.2958,-0.2971,-0.3001,-0.3005,-0.3016,-0.3044,-0.3048,-0.3048,-0.3048,-0.3048,-0.3048,-0.3048,-0.3021,-0.3005,-0.3005,-0.2976,-0.2961,-0.296,-0.2958,0.0,0.0,0.0,0.0,0.0,0.0,0.0,0.0,0.0,0.0,0.0,0.0,0.0,0.0,0.0,0.0,0.0,0.0,0.0,0.0,0.0,0.0,0.0,0.0,0.0,0.0,0.0,0.0,-0.2692,-0.2692,0.0,-0.2692,-0.2692,-0.2692,-0.2692,-0.2692,-0.2701,-0.2721,-0.2721,-0.2736,-0.2766,-0.2767,-0.2773,-0.2784,-0.2803,-0.2812,-0.2812,-0.2833,-0.2841,-0.2842,-0.2139,-0.1965,-0.1965,-0.1972,-0.1975,-0.1974,-0.1959,-0.2314,-0.2857,-0.2857,-0.2864,-0.2874,-0.2874,-0.2874,-0.2874,-0.2874,-0.2874,-0.2874,-0.2874,-0.2874,-0.2874,-0.2874,-0.2874,-0.2874,-0.2874,-0.2874,-0.2878,-0.2897,-0.2901,-0.2905,-0.2926,-0.293,-0.2932,-0.2943,-0.2945,-0.2942,-0.2932,-0.2938,-0.2945,-0.2945,-0.2954,-0.2968,-0.2987,-0.2991,-0.2813,-0.2084,-0.2657,-0.304,-0.3051,-0.3052,-0.3052,-0.3052,-0.3052,-0.3052,-0.3052,-0.3041,-0.3036,-0.3036,-0.3025,-0.301,-0.2991,-0.2991,-0.2976,0.0,0.0,0.0,0.0,0.0,0.0,0.0,0.0,0.0,0.0,0.0,0.0,0.0,0.0,0.0,0.0,0.0,0.0,0.0,0.0,0.0,0.0,0.0,0.0,0.0,0.0,-0.2692,-0.2692,-0.2692,-0.2692,-0.2692,-0.2702,-0.2707,-0.2707,-0.2717,-0.2732,-0.2752,-0.2754,-0.2767,-0.2797,-0.2799,-0.2803,-0.2814,-0.2834,-0.2844,-0.2844,-0.2875,-0.2889,-0.289,-0.1449,-0.0908,-0.0908,-0.0908,-0.1089,-0.1452,-0.1452,-0.1815,-0.2358,-0.2342,-0.2335,-0.2335,-0.2335,-0.2515,-0.2516,-0.2885,-0.2887,-0.289,-0.29,-0.2904,-0.2904,-0.2904,-0.2904,-0.2904,-0.2904,-0.2904,-0.2908,-0.2927,-0.2931,-0.2936,-0.2957,-0.2961,-0.2964,-0.2975,-0.2976,-0.298,-0.299,-0.2984,-0.2976,-0.2976,-0.2986,-0.2999,-0.3018,-0.2645,-0.2464,-0.2106,-0.2108,-0.2303,-0.3082,-0.3082,-0.3082,-0.3082,-0.3082,-0.3078,-0.3069,-0.3067,-0.3063,-0.3052,-0.3052,-0.3043,-0.3022,-0.3011,-0.2996,-0.2976,0.0,0.0,0.0,0.0,0.0,0.0,0.0,0.0,0.0,0.0,0.0,0.0,0.0,0.0,0.0,0.0,0.0,0.0,0.0,0.0,0.0,0.0,0.0,-0.2692,-0.2692,-0.2692,-0.2692,-0.2692,-0.2694,-0.2694,-0.2721,-0.2739,-0.2739,-0.2766,-0.2784,-0.2785,-0.2785,-0.2799,-0.2829,-0.283,-0.2845,-0.2875,-0.2876,-0.2876,-0.2876,-0.2906,-0.292,-0.2739,-0.0922,0.0,0.0,0.0,-0.0556,-0.1297,-0.1297,-0.1297,-0.1294,-0.1268,-0.1438,-0.1438,-0.1438,-0.1617,-0.198,-0.2726,-0.2917,-0.2923,-0.2951,-0.2961,-0.2961,-0.2961,-0.2961,-0.2961,-0.2961,-0.2961,-0.2961,-0.2962,-0.2962,-0.2964,-0.2964,-0.2964,-0.2972,-0.3002,-0.3009,-0.3018,-0.3048,-0.3031,-0.301,-0.301,-0.3035,-0.3054,-0.3055,-0.229,0.0,-0.2901,-0.1355,-0.0777,-0.2747,-0.3142,-0.3142,-0.3142,-0.3142,-0.313,-0.31,-0.3099,-0.3085,-0.3056,-0.3054,-0.3054,-0.3052,-0.3024,-0.3009,-0.3009,0.0,0.0,0.0,0.0,0.0,0.0,0.0,0.0,0.0,0.0,0.0,0.0,0.0,0.0,0.0,0.0,0.0,0.0,0.0,0.0,0.0,0.0,-0.2692,-0.2692,-0.2692,-0.2692,-0.2692,-0.2712,-0.2725,-0.2725,-0.2752,-0.277,-0.277,-0.2778,-0.2793,-0.2815,-0.2816,-0.283,-0.286,-0.2882,-0.2896,-0.2904,-0.2927,-0.2938,-0.2938,-0.221,-0.1845,-0.1845,-0.0555,0.0,0.0,0.0,-0.0185,-0.037,-0.037,-0.037,-0.037,-0.0368,-0.0367,-0.0367,-0.0367,-0.1286,-0.2757,-0.2762,-0.2949,-0.295,-0.2958,-0.2961,-0.2961,-0.2961,-0.2961,-0.2961,-0.2961,-0.2961,-0.2966,-0.2988,-0.2994,-0.2999,-0.3022,-0.3028,-0.3029,-0.3037,-0.3056,-0.3076,-0.3084,-0.3096,-0.3099,-0.3076,-0.308,-0.3093,-0.3115,-0.2923,-0.2146,-0.0977,-0.0978,-0.137,-0.1963,-0.275,-0.3142,-0.3142,-0.3142,-0.314,-0.3131,-0.313,-0.3127,-0.3118,-0.3097,-0.3074,-0.3052,-0.3044,-0.304,0.0,0.0,0.0,0.0,0.0,0.0,0.0,0.0,0.0,0.0,0.0,0.0,0.0,0.0,0.0,0.0,0.0,0.0,0.0,0.0,0.0,0.0,-0.202,-0.2698,-0.271,-0.2701,-0.2698,-0.271,-0.2727,-0.2743,-0.2755,-0.2436,-0.2101,-0.2101,-0.2638,-0.2829,-0.2846,-0.2859,-0.2874,-0.2891,-0.292,-0.2935,-0.2935,-0.2953,-0.2961,-0.2964,-0.2417,-0.1677,-0.0746,-0.0187,0.0,0.0,0.0,0.0,0.0,0.0,0.0,0.0,0.0,0.0,0.0,0.0,-0.0741,-0.1853,-0.2604,-0.298,-0.2983,-0.2995,-0.2999,-0.2999,-0.2999,-0.2999,-0.2999,-0.2999,-0.2999,-0.3003,-0.3021,-0.3025,-0.3033,-0.3065,-0.3071,-0.3074,-0.3088,-0.3104,-0.3116,-0.3116,-0.313,0.0,-0.3137,-0.3125,-0.3123,-0.314,-0.275,-0.2163,-0.1382,-0.0988,-0.1187,-0.2186,-0.2783,-0.318,-0.318,-0.318,0.0,0.0,0.0,-0.3156,-0.3144,-0.3126,0.0,0.0,0.0,-0.3065,-0.3052,-0.3052,0.0,0.0,-0.2971,-0.2962,0.0,0.0,0.0,0.0,0.0,0.0,0.0,0.0,0.0,0.0,0.0,0.0,0.0,0.0,0.0,0.0,-0.1855,-0.2541,-0.2739,-0.272,-0.2713,-0.274,-0.2746,-0.2759,-0.2785,-0.1936,-0.1417,-0.124,-0.1967,-0.2699,-0.2879,0.0,0.0,0.0,0.0,-0.2966,-0.2966,-0.2969,-0.2972,-0.2975,-0.3001,-0.2071,-0.0377,-0.019,0.0,0.0,0.0,0.0,0.0,0.0,0.0,0.0,0.0,0.0,0.0,0.0,0.0,-0.0186,-0.2252,0.0,0.0,-0.3043,-0.3052,-0.3052,-0.3052,-0.3055,-0.3058,-0.3058,-0.3059,-0.3062,-0.3062,-0.3062,-0.3069,-0.3096,-0.3103,-0.311,-0.3137,-0.3145,-0.3148,-0.3148,-0.3153,-0.3167,-0.3194,-0.317,-0.315,-0.3157,-0.2171,-0.1782,-0.28,-0.1401,-0.1004,-0.3038,-0.3243,0.0,-0.3243,-0.3242,-0.323,-0.3205,-0.32,-0.3185,-0.3155,-0.3149,-0.3134,-0.3103,-0.3103,-0.3089,-0.3062,-0.3062,-0.3062,-0.3062,-0.3028,-0.3011,0.0,0.0,0.0,0.0,0.0,0.0,0.0,0.0,0.0,0.0,0.0,0.0,0.0,0.0,0.0,-0.0511,-0.0341,-0.1027,-0.2597,-0.2769,-0.2767,-0.2774,-0.2796,-0.2814,-0.2643,-0.267,-0.1969,-0.0358,-0.0362,-0.1273,-0.2729,-0.2939,-0.2954,-0.2953,-0.2981,-0.2998,-0.2998,-0.3022,-0.3035,-0.3036,-0.304,0.0,-0.2474,-0.0763,0.0,0.0,0.0,0.0,0.0,0.0,0.0,0.0,0.0,0.0,0.0,0.0,0.0,-0.019,-0.133,-0.2282,-0.3044,-0.3051,-0.3052,-0.3052,-0.3052,-0.3069,0.0,-0.3089,-0.3107,-0.3126,-0.3126,-0.3126,-0.3127,-0.3133,-0.3134,-0.3135,-0.3141,-0.3161,-0.3179,-0.3179,-0.3217,-0.3251,-0.3258,-0.3215,-0.3195,-0.3243,-0.1625,-0.0612,-0.1851,-0.1647,-0.1854,-0.3097,-0.3305,-0.3305,-0.3305,-0.3303,-0.33,-0.3295,-0.3272,-0.3245,-0.3215,-0.3191,-0.3165,-0.3134,-0.3134,-0.3131,-0.3126,-0.3126,-0.3126,-0.3125,-0.3069,-0.3043,0.0,0.0,0.0,0.0,0.0,0.0,0.0,0.0,0.0,0.0,0.0,-0.0842,0.0,0.0,-0.1021,-0.0171,0.0,-0.0346,-0.1225,-0.228,-0.263,-0.2104,-0.2467,-0.2834,-0.2849,-0.1979,-0.1086,-0.0,0.0,-0.0368,-0.147,-0.2413,-0.2612,-0.2237,-0.226,-0.2272,-0.2272,-0.2283,-0.2486,-0.3074,-0.3074,-0.2505,-0.1548,-0.0387,0.0,0.0,0.0,0.0,0.0,0.0,0.0,0.0,0.0,0.0,0.0,0.0,0.0,-0.0,-0.0581,-0.1742,-0.3097,-0.3097,-0.3097,-0.3097,-0.3097,-0.3108,-0.2926,-0.2534,-0.2348,-0.275,-0.3142,-0.3142,-0.3146,-0.3161,-0.3176,-0.319,-0.3206,-0.3234,-0.3254,-0.3254,-0.3279,-0.3298,-0.3298,-0.3275,-0.3265,-0.3294,-0.2268,-0.1653,-0.1659,-0.2283,-0.2704,-0.3343,-0.2298,-0.2093,-0.3154,-0.3352,-0.3344,-0.3344,-0.3315,-0.3292,-0.3276,-0.3262,-0.3234,-0.3187,-0.3186,-0.3172,-0.3142,-0.3142,-0.3142,-0.3142,-0.3112,-0.3097,0.0,0.0,0.0,0.0,0.0,0.0,0.0,0.0,0.0,0.0,0.0,0.0,0.0,0.0,0.0,0.0,0.0,0.0,0.0,-0.1241,-0.2129,-0.1601,-0.1956,-0.2141,-0.234,-0.0909,0.0,0.0,0.0,0.0,0.0,-0.15,-0.2262,-0.1696,-0.1332,-0.1147,-0.1147,-0.1149,-0.1733,-0.2523,-0.2523,-0.1559,0.0,0.0,0.0,0.0,0.0,0.0,0.0,0.0,0.0,0.0,0.0,0.0,0.0,0.0,0.0,0.0,0.0,-0.1178,-0.2553,-0.275,-0.275,-0.275,-0.275,-0.295,-0.2955,-0.1969,-0.1777,-0.198,-0.2972,-0.3174,-0.3183,-0.3208,-0.3231,-0.3254,-0.3279,-0.3303,-0.3321,-0.3321,-0.3326,-0.3332,-0.3337,-0.3344,-0.3343,-0.3332,-0.3336,-0.2925,-0.1882,-0.2725,-0.3367,-0.339,-0.1696,-0.1276,-0.257,-0.2981,-0.3181,-0.3393,-0.3365,-0.3344,-0.3339,-0.3333,-0.3303,-0.3249,-0.3247,-0.3224,-0.3178,-0.3178,-0.3178,-0.3178,-0.3178,-0.3165,0.0,0.0,0.0,0.0,0.0,0.0,0.0,0.0,0.0,0.0,0.0,0.0,0.0,0.0,0.0,0.0,0.0,0.0,0.0,-0.0179,-0.0899,-0.2542,-0.1272,-0.0364,-0.0364,-0.0184,0.0,0.0,0.0,0.0,0.0,-0.019,-0.1143,-0.2857,-0.1154,-0.0193,-0.0193,-0.0195,-0.0196,-0.0392,-0.0392,-0.0196,0.0,0.0,0.0,0.0,0.0,0.0,0.0,0.0,0.0,0.0,0.0,0.0,0.0,0.0,0.0,0.0,0.0,-0.0196,-0.0589,-0.1374,-0.1767,-0.1767,-0.1767,-0.2371,-0.2984,-0.2984,-0.161,-0.0612,-0.2856,-0.3283,-0.3302,-0.3306,-0.3309,-0.3311,-0.3315,-0.3318,-0.3321,-0.3321,-0.3343,-0.337,-0.3397,-0.3425,-0.3423,-0.337,-0.3385,-0.2772,-0.1933,-0.2599,-0.3483,-0.3487,-0.3269,-0.2398,-0.0436,-0.1308,-0.2397,-0.3269,-0.3459,-0.343,-0.3403,-0.3375,-0.3345,-0.3311,-0.3311,-0.3307,-0.33,-0.33,-0.33,-0.33,-0.33,-0.3245,0.0,0.0,0.0,0.0,0.0,0.0,0.0,0.0,0.0,0.0,0.0,0.0,0.0,0.0,0.0,0.0,0.0,0.0,0.0,0.0,-0.0364,-0.1103,-0.0555,0.0,0.0,0.0,0.0,0.0,0.0,0.0,0.0,0.0,-0.0385,-0.1346,-0.0388,0.0,0.0,0.0,0.0,0.0,0.0,0.0,0.0,0.0,0.0,0.0,0.0,0.0,0.0,0.0,0.0,0.0,0.0,0.0,0.0,0.0,0.0,0.0,0.0,0.0,-0.0,-0.0406,-0.0609,-0.0609,-0.0609,-0.1018,-0.1225,-0.1225,-0.0616,-0.0206,-0.1239,-0.2278,-0.3321,-0.3321,-0.3335,-0.3348,-0.3347,-0.3375,-0.34,-0.34,-0.2783,-0.2371,-0.238,-0.3041,-0.3475,-0.3449,-0.2808,-0.2168,-0.174,-0.2621,-0.2851,-0.1543,-0.1329,-0.111,-0.0,-0.0442,-0.0882,-0.1323,-0.1968,-0.2825,-0.3465,-0.3452,-0.3431,-0.3401,-0.3382,-0.3365,-0.3348,-0.3329,-0.3321,-0.3321,-0.3321,-0.3294,0.0,0.0,0.0,0.0,0.0,0.0,0.0,0.0,0.0,0.0,0.0,0.0,0.0,0.0,0.0,0.0,0.0,0.0,0.0,0.0,0.0,0.0,0.0,0.0,0.0,0.0,0.0,0.0,0.0,0.0,0.0,0.0,0.0,0.0,0.0,0.0,0.0,0.0,0.0,0.0,0.0,0.0,0.0,0.0,0.0,0.0,0.0,0.0,0.0,0.0,0.0,0.0,0.0,0.0,0.0,0.0,0.0,0.0,0.0,0.0,0.0,0.0,0.0,0.0,0.0,0.0,0.0,0.0,0.0,0.0,0.0,-0.1252,-0.251,-0.2727,-0.2954,-0.2969,-0.3189,-0.3223,-0.3036,-0.3253,-0.2834,-0.1972,-0.1317,-0.2417,-0.308,-0.2652,-0.177,-0.1326,-0.1322,-0.1991,-0.1781,-0.0224,0.0,0.0,0.0,0.0,0.0,0.0,-0.0666,-0.1766,-0.3077,-0.3296,-0.3499,-0.3471,-0.3448,-0.3426,-0.3404,-0.3382,-0.3371,-0.3371,-0.3371,-0.3371,0.0,0.0,0.0,0.0,0.0,0.0,0.0,0.0,0.0,0.0,0.0,0.0,0.0,0.0,0.0,0.0,0.0,0.0,0.0,0.0,0.0,0.0,0.0,0.0,0.0,0.0,0.0,0.0,0.0,0.0,0.0,0.0,0.0,0.0,0.0,0.0,0.0,0.0,0.0,0.0,0.0,0.0,0.0,0.0,0.0,0.0,0.0,0.0,0.0,0.0,0.0,0.0,0.0,0.0,0.0,0.0,0.0,0.0,0.0,0.0,0.0,0.0,0.0,0.0,0.0,0.0,0.0,0.0,0.0,0.0,0.0,-0.0,-0.0427,-0.1507,-0.1726,-0.1947,-0.3055,-0.2624,-0.197,-0.3283,-0.3283,-0.2634,-0.0442,-0.1995,-0.2674,-0.0453,-0.0,-0.0,-0.0,-0.0,-0.0,-0.0,0.0,0.0,0.0,0.0,0.0,0.0,-0.0,-0.0676,-0.1773,-0.2882,-0.3534,-0.3502,-0.3499,-0.3499,-0.3499,-0.3499,-0.3495,-0.3495,-0.3495,-0.3495,0.0,0.0,0.0,0.0,0.0,0.0,0.0,0.0,0.0,0.0,0.0,0.0,0.0,0.0,0.0,0.0,0.0,0.0,0.0,0.0,0.0,0.0,0.0,0.0,0.0,0.0,0.0,0.0,0.0,0.0,0.0,0.0,0.0,0.0,0.0,0.0,0.0,0.0,0.0,0.0,0.0,0.0,0.0,0.0,0.0,0.0,0.0,0.0,0.0,0.0,0.0,0.0,0.0,0.0,0.0,0.0,0.0,0.0,0.0,0.0,0.0,0.0,0.0,0.0,0.0,0.0,0.0,0.0,0.0,0.0,0.0,0.0,-0.0,-0.0435,-0.0653,-0.0654,-0.1093,-0.1979,-0.243,-0.1325,-0.1114,-0.0899,-0.0225,-0.0679,-0.0911,-0.0229,0.0,0.0,0.0,0.0,0.0,0.0,0.0,0.0,0.0,0.0,0.0,0.0,0.0,-0.0457,-0.1817,-0.2939,-0.36,-0.3589,-0.3551,-0.3531,-0.3531,-0.3513,-0.3502,-0.3502,-0.3502,-0.3502,0.0,0.0,0.0,0.0,0.0,0.0,0.0,0.0,0.0,0.0,0.0,0.0,0.0,0.0,0.0,0.0,0.0,0.0,0.0,0.0,0.0,0.0,0.0,0.0,0.0,0.0,0.0,0.0,0.0,0.0,0.0,0.0,0.0,0.0,0.0,0.0,0.0,0.0,0.0,0.0,0.0,0.0,0.0,0.0,0.0,0.0,0.0,0.0,0.0,0.0,0.0,0.0,0.0,0.0,0.0,0.0,0.0,0.0,0.0,0.0,0.0,0.0,0.0,0.0,0.0,0.0,0.0,0.0,0.0,0.0,0.0,0.0,0.0,0.0,0.0,0.0,0.0,-0.1112,-0.1789,-0.0224,0.0,0.0,0.0,0.0,0.0,0.0,0.0,0.0,0.0,0.0,0.0,0.0,0.0,0.0,0.0,0.0,0.0,0.0,0.0,-0.0462,-0.115,-0.2747,-0.3652,-0.3652,-0.3614,-0.3594,-0.3594,-0.3576,-0.3562,-0.3551,-0.3551,-0.3544,0.0,0.0,0.0,0.0,0.0,0.0,0.0,0.0,0.0,0.0,0.0,0.0,0.0,0.0,0.0,0.0,0.0,0.0,0.0,0.0,0.0,0.0,0.0,0.0,0.0,0.0,0.0,0.0,0.0,0.0,0.0,0.0,0.0,0.0,0.0,0.0,0.0,0.0,0.0,0.0,0.0,0.0,0.0,0.0,0.0,0.0,0.0,0.0,0.0,0.0,0.0,0.0,0.0,0.0,0.0,0.0,0.0,0.0,0.0,0.0,0.0,0.0,0.0,0.0,0.0,0.0,0.0,0.0,0.0,0.0,0.0,0.0,0.0,0.0,0.0,0.0,0.0,0.0,0.0,0.0,0.0,0.0,0.0,0.0,0.0,0.0,0.0,0.0,0.0,0.0,0.0,0.0,0.0,0.0,0.0,0.0,0.0,0.0,0.0,0.0,0.0,-0.2302,-0.3684,-0.3684,-0.3681,-0.3681,-0.3681,-0.3681,-0.3667,-0.3639,-0.3639,-0.3621,0.0,0.0,0.0,0.0,0.0,0.0,0.0,0.0,0.0,0.0,0.0,0.0,0.0,0.0,0.0,0.0,0.0,0.0,0.0,0.0,0.0,0.0,0.0,0.0,0.0,0.0,0.0,0.0,0.0,0.0,0.0,0.0,0.0,0.0,0.0,0.0,0.0,0.0,0.0,0.0,0.0,0.0,0.0,0.0,0.0,0.0,0.0,0.0,0.0,0.0,0.0,0.0,0.0,0.0,0.0,0.0,0.0,0.0,0.0,0.0,0.0,0.0,0.0,0.0,0.0,0.0,0.0,0.0,0.0,0.0,0.0,0.0,0.0,0.0,0.0,0.0,0.0,0.0,0.0,0.0,0.0,0.0,0.0,0.0,0.0,0.0,0.0,0.0,0.0,0.0,0.0,0.0,0.0,0.0,0.0,0.0,0.0,0.0,0.0,0.0,0.0,-0.163,-0.2786,-0.3716,-0.3692,-0.3681,-0.3681,-0.3681,-0.3677,-0.367,-0.367,-0.3663,0.0,0.0,0.0,0.0,0.0,0.0,0.0,0.0,0.0,0.0,0.0,0.0,0.0,0.0,0.0,0.0,0.0,0.0,0.0,0.0,0.0,0.0,0.0,0.0,0.0,0.0,0.0,0.0,0.0,0.0,0.0,0.0,0.0,0.0,0.0,0.0,0.0,0.0,0.0,0.0,0.0,0.0,0.0,0.0,0.0,0.0,0.0,0.0,0.0,0.0,0.0,0.0,0.0,0.0,0.0,0.0,0.0,0.0,0.0,0.0,0.0,0.0,0.0,0.0,0.0,0.0,0.0,0.0,0.0,0.0,0.0,0.0,0.0,0.0,0.0,0.0,0.0,0.0,0.0,0.0,0.0,0.0,0.0,0.0,0.0,0.0,0.0,0.0,0.0,0.0,0.0,0.0,0.0,0.0,0.0,0.0,0.0,0.0,0.0,0.0,0.0,-0.0704,-0.1873,-0.3748,-0.373,-0.3719,-0.3719,-0.3719,-0.3712,-0.3701,-0.3701,-0.3694,0.0,0.0,0.0,0.0,0.0,0.0,0.0,0.0,0.0,0.0,0.0,0.0,0.0,0.0,0.0,0.0,0.0,0.0,0.0,0.0,0.0,0.0,0.0,0.0,0.0,0.0,0.0,0.0,0.0,0.0,0.0,0.0,0.0,0.0,0.0,0.0,0.0,0.0,0.0,0.0,0.0,0.0,0.0,0.0,0.0,0.0,0.0,0.0,0.0,0.0,0.0,0.0,0.0,0.0,0.0,0.0,0.0,0.0,0.0,0.0,0.0,0.0,0.0,0.0,0.0,0.0,0.0,0.0,0.0,0.0,0.0,0.0,0.0,0.0,0.0,0.0,0.0,0.0,0.0,0.0,0.0,0.0,0.0,0.0,0.0,0.0,0.0,0.0,0.0,0.0,0.0,0.0,0.0,0.0,0.0,0.0,0.0,0.0,0.0,0.0,0.0,0.0,-0.1178,-0.3535,-0.3771,-0.3772,-0.3772,-0.3772,-0.3757,-0.3733,-0.3733,-0.3719,0.0,0.0,0.0,0.0,0.0,0.0,0.0,0.0,0.0,0.0,0.0,0.0,0.0,0.0,0.0,0.0,0.0,0.0,0.0,0.0,0.0,0.0,0.0,0.0,0.0,0.0,0.0,0.0,0.0,0.0,0.0,0.0,0.0,0.0,0.0,0.0,0.0,0.0,0.0,0.0,0.0,0.0,0.0,0.0,0.0,0.0,0.0,0.0,0.0,0.0,0.0,0.0,0.0,0.0,0.0,0.0,0.0,0.0,0.0,0.0,0.0,0.0,0.0,0.0,0.0,0.0,0.0,0.0,0.0,0.0,0.0,0.0,0.0,0.0,0.0,0.0,0.0,0.0,0.0,0.0,0.0,0.0,0.0,0.0,0.0,0.0,0.0,0.0,0.0,0.0,0.0,0.0,0.0,0.0,0.0,0.0,0.0,0.0,0.0,0.0,0.0,0.0,-0.0707,-0.2121,-0.33,-0.3772,-0.3772,-0.3772,-0.3768,-0.3764,-0.3764,-0.3761,0.0,0.0,0.0,0.0,0.0,0.0,0.0,0.0,0.0,0.0,0.0,0.0,0.0,0.0,0.0,0.0,0.0,0.0,0.0,0.0,0.0,0.0,0.0,0.0,0.0,0.0,0.0,0.0,0.0,0.0,0.0,0.0,0.0,0.0,0.0,0.0,0.0,0.0,0.0,0.0,0.0,0.0,0.0,0.0,0.0,0.0,0.0,0.0,0.0,0.0,0.0,0.0,0.0,0.0,0.0,0.0,0.0,0.0,0.0,0.0,0.0,0.0,0.0,0.0,0.0,0.0,0.0,0.0,0.0,0.0,0.0,0.0,0.0,0.0,0.0,0.0,0.0,0.0,0.0,0.0,0.0,0.0,0.0,0.0,0.0,0.0,0.0,0.0,0.0,0.0,0.0,0.0,0.0,0.0,0.0,0.0,0.0,0.0,0.0,0.0,0.0,0.0,-0.0236,-0.0943,-0.2828,-0.3772,-0.3772,-0.3772,-0.3772,-0.3772,-0.3772,-0.3772,0.0,0.0,0.0,0.0,0.0,0.0,0.0,0.0,0.0,0.0,0.0,0.0,0.0,0.0,0.0,0.0,0.0,0.0,0.0,0.0,0.0,0.0,0.0,0.0,0.0,0.0,0.0,0.0,0.0,0.0,0.0,0.0,0.0,0.0,0.0,0.0,0.0,0.0,0.0,0.0,0.0,0.0,0.0,0.0,0.0,0.0,0.0,0.0,0.0,0.0,0.0,0.0,0.0,0.0,0.0,0.0,0.0,0.0,0.0,0.0,0.0,0.0,0.0,0.0,0.0,0.0,0.0,0.0,0.0,0.0,0.0,0.0,0.0,0.0,0.0,0.0,0.0,0.0,0.0,0.0,0.0,0.0,0.0,0.0,0.0,0.0,0.0,0.0,0.0,0.0,0.0,0.0,0.0,0.0,0.0,0.0,0.0,0.0,0.0,0.0,0.0,0.0,0.0,0.0,-0.1885,-0.33,-0.3772,-0.3772,-0.3772,-0.3772,-0.3772,-0.3772,0.0,0.0,0.0,0.0,0.0,0.0,0.0,0.0,0.0,0.0,0.0,0.0,0.0,0.0,0.0,0.0,0.0,0.0,0.0,0.0,0.0,0.0,0.0,0.0,0.0,0.0,0.0,0.0,0.0,0.0,0.0,0.0,0.0,0.0,0.0,0.0,0.0,0.0,0.0,0.0,0.0,0.0,0.0,0.0,0.0,0.0,0.0,0.0,0.0,0.0,0.0,0.0,0.0,0.0,0.0,0.0,0.0,0.0,0.0,0.0,0.0,0.0,0.0,0.0,0.0,0.0,0.0,0.0,0.0,0.0,0.0,0.0,0.0,0.0,0.0,0.0,0.0,0.0,0.0,0.0,0.0,0.0,0.0,0.0,0.0,0.0,0.0,0.0,0.0,0.0,0.0,0.0,0.0,0.0,0.0,0.0,0.0,0.0,0.0,0.0,0.0,0.0,0.0,0.0,-0.0236,-0.1414,-0.3772,-0.3772,-0.3772,-0.3772,-0.3772,-0.3772,0.0,0.0,0.0,0.0,0.0,0.0,0.0,0.0,0.0,0.0,0.0,0.0,0.0,0.0,0.0,0.0,0.0,0.0,0.0,0.0,0.0,0.0,0.0,0.0,0.0,0.0,0.0,0.0,0.0,0.0,0.0,0.0,0.0,0.0,0.0,0.0,0.0,0.0,0.0,0.0,0.0,0.0,0.0,0.0,0.0,0.0,0.0,0.0,0.0,0.0,0.0,0.0,0.0,0.0,0.0,0.0,0.0,0.0,0.0,0.0,0.0,0.0,0.0,0.0,0.0,0.0,0.0,0.0,0.0,0.0,0.0,0.0,0.0,0.0,0.0,0.0,0.0,0.0,0.0,0.0,0.0,0.0,0.0,0.0,0.0,0.0,0.0,0.0,0.0,0.0,0.0,0.0,0.0,0.0,0.0,0.0,0.0,0.0,0.0,0.0,0.0,0.0,0.0,0.0,0.0,-0.0471,-0.1414,-0.2356,-0.3064,-0.3772,-0.3772,-0.3772,0.0,0.0,0.0,0.0,0.0,0.0,0.0,0.0,0.0,0.0,0.0,0.0,0.0,0.0,0.0,0.0,0.0,0.0,0.0,0.0,0.0,0.0,0.0,0.0,0.0,0.0,0.0,0.0,0.0,0.0,0.0,0.0,0.0,0.0,0.0,0.0,0.0,0.0,0.0,0.0,0.0,0.0,0.0,0.0,0.0,0.0,0.0,0.0,0.0,0.0,0.0,0.0,0.0,0.0,0.0,0.0,0.0,0.0,0.0,0.0,0.0,0.0,0.0,0.0,0.0,0.0,0.0,0.0,0.0,0.0,0.0,0.0,0.0,0.0,0.0,0.0,0.0,0.0,0.0,0.0,0.0,0.0,0.0,0.0,0.0,0.0,0.0,0.0,0.0,0.0,0.0,0.0,0.0,0.0,0.0,0.0,0.0,0.0,0.0,0.0,0.0,0.0,0.0,0.0,0.0,0.0,-0.0,-0.0943,-0.2121,-0.3772,-0.3772,-0.3772,0.0,0.0,0.0,0.0,0.0,0.0,0.0,0.0,0.0,0.0,0.0,0.0,0.0,0.0,0.0,0.0,0.0,0.0,0.0,0.0,0.0,0.0,0.0,0.0,0.0,0.0,0.0,0.0,0.0,0.0,0.0,0.0,0.0,0.0,0.0,0.0,0.0,0.0,0.0,0.0,0.0,0.0,0.0,0.0,0.0,0.0,0.0,0.0,0.0,0.0,0.0,0.0,0.0,0.0,0.0,0.0,0.0,0.0,0.0,0.0,0.0,0.0,0.0,0.0,0.0,0.0,0.0,0.0,0.0,0.0,0.0,0.0,0.0,0.0,0.0,0.0,0.0,0.0,0.0,0.0,0.0,0.0,0.0,0.0,0.0,0.0,0.0,0.0,0.0,0.0,0.0,0.0,0.0,0.0,0.0,0.0,0.0,0.0,0.0,0.0,0.0,0.0,0.0,0.0,0.0,0.0,-0.0,-0.0,-0.1414,-0.3772,-0.3772,-0.3772,0.0,0.0,0.0,0.0,0.0,0.0,0.0,0.0,0.0,0.0,0.0,0.0,0.0,0.0,0.0,0.0,0.0,0.0,0.0,0.0,0.0,0.0,0.0,0.0,0.0,0.0,0.0,0.0,0.0,0.0,0.0,0.0,0.0,0.0,0.0,0.0,0.0,0.0,0.0,0.0,0.0,0.0,0.0,0.0,0.0,0.0,0.0,0.0,0.0,0.0,0.0,0.0,0.0,0.0,0.0,0.0,0.0,0.0,0.0,0.0,0.0,0.0,0.0,0.0,0.0,0.0,0.0,0.0,0.0,0.0,0.0,0.0,0.0,0.0,0.0,0.0,0.0,0.0,0.0,0.0,0.0,0.0,0.0,0.0,0.0,0.0,0.0,0.0,0.0,0.0,0.0,0.0,0.0,0.0,0.0,0.0,0.0,0.0,0.0,0.0,0.0,0.0,0.0,0.0,0.0,0.0,0.0,0.0,-0.0471,-0.1178,-0.3064,-0.3772,0.0,0.0,0.0,0.0,0.0,0.0,0.0,0.0,0.0,0.0,0.0,0.0,0.0,0.0,0.0,0.0,0.0,0.0,0.0,0.0,0.0,0.0,0.0,0.0,0.0,0.0,0.0,0.0,0.0,0.0,0.0,0.0,0.0,0.0,0.0,0.0,0.0,0.0,0.0,0.0,0.0,0.0,0.0,0.0,0.0,0.0,0.0,0.0,0.0,0.0,0.0,0.0,0.0,0.0,0.0,0.0,0.0,0.0,0.0,0.0,0.0,0.0,0.0,0.0,0.0,0.0,0.0,0.0,0.0,0.0,0.0,0.0,0.0,0.0,0.0,0.0,0.0,0.0,0.0,0.0,0.0,0.0,0.0,0.0,0.0,0.0,0.0,0.0,0.0,0.0,0.0,0.0,0.0,0.0,0.0,0.0,0.0,0.0,0.0,0.0,0.0,0.0,0.0,0.0,0.0,0.0,0.0,0.0,0.0,-0.0,-0.1649,-0.2593,0.0,0.0,0.0,0.0,0.0,0.0,0.0,0.0,0.0,0.0,0.0,0.0,0.0,0.0,0.0,0.0,0.0,0.0,0.0,0.0,0.0,0.0,0.0,0.0,0.0,0.0,0.0,0.0,0.0,0.0,0.0,0.0,0.0,0.0,0.0,0.0,0.0,0.0,0.0,0.0,0.0,0.0,0.0,0.0,0.0,0.0,0.0,0.0,0.0,0.0,0.0,0.0,0.0,0.0,0.0,0.0,0.0,0.0,0.0,0.0,0.0,0.0,0.0,0.0,0.0,0.0,0.0,0.0,0.0,0.0,0.0,0.0,0.0,0.0,0.0,0.0,0.0,0.0,0.0,0.0,0.0,0.0,0.0,0.0,0.0,0.0,0.0,0.0,0.0,0.0,0.0,0.0,0.0,0.0,0.0,0.0,0.0,0.0,0.0,0.0,0.0,0.0,0.0,0.0,0.0,0.0,0.0,0.0,0.0,0.0,0.0,-0.0707,0.0,0.0,0.0,0.0,0.0,0.0,0.0,0.0,0.0,0.0,0.0,0.0,0.0,0.0,0.0,0.0,0.0,0.0,0.0,0.0,0.0,0.0,0.0,0.0,0.0,0.0,0.0,0.0,0.0,0.0,0.0,0.0,0.0,0.0,0.0,0.0,0.0,0.0,0.0,0.0,0.0,0.0,0.0,0.0,0.0,0.0,0.0,0.0,0.0,0.0,0.0,0.0,0.0,0.0,0.0,0.0,0.0,0.0,0.0,0.0,0.0,0.0,0.0,0.0,0.0,0.0,0.0,0.0,0.0,0.0,0.0,0.0,0.0,0.0,0.0,0.0,0.0,0.0,0.0,0.0,0.0,0.0,0.0,0.0,0.0,0.0,0.0,0.0,0.0,0.0,0.0,0.0,0.0,0.0,0.0,0.0,0.0,0.0,0.0,0.0,0.0,0.0,0.0,0.0,0.0,0.0,0.0,0.0,0.0,0.0,0.0,-0.0236,0.0,0.0,0.0,0.0,0.0,0.0,0.0,0.0,0.0,0.0,0.0,0.0,0.0,0.0,0.0,0.0,0.0,0.0,0.0,0.0,0.0,0.0,0.0,0.0,0.0,0.0,0.0,0.0,0.0,0.0,0.0,0.0,0.0,0.0,0.0,0.0,0.0,0.0,0.0,0.0,0.0,0.0,0.0,0.0,0.0,0.0,0.0,0.0,0.0,0.0,0.0,0.0,0.0,0.0,0.0,0.0,0.0,0.0,0.0,0.0,0.0,0.0,0.0,0.0,0.0,0.0,0.0,0.0,0.0,0.0,0.0,0.0,0.0,0.0,0.0,0.0,0.0,0.0,0.0,0.0,0.0,0.0,0.0,0.0,0.0,0.0,0.0,0.0,0.0,0.0,0.0,0.0,0.0,0.0,0.0,0.0,0.0,0.0,0.0,0.0,0.0,0.0,0.0,0.0,0.0,0.0,0.0,0.0,0.0,0.0,0.0,0.0,0.0,0.0,0.0,0.0,0.0,0.0,0.0,0.0,0.0,0.0,0.0,0.0,0.0,0.0,0.0,0.0,0.0,0.0,0.0,0.0,0.0,0.0,0.0,0.0,0.0,0.0,0.0,0.0,0.0,0.0,0.0,0.0,0.0,0.0,0.0,0.0,0.0,0.0,0.0,0.0,0.0,0.0,0.0,0.0,0.0,0.0,0.0,0.0,0.0,0.0,0.0,0.0,0.0,0.0,0.0,0.0,0.0,0.0,0.0,0.0,0.0,0.0,0.0,0.0,0.0,0.0,0.0,0.0,0.0,0.0,0.0,0.0,0.0,0.0,0.0,0.0,0.0,0.0,0.0,0.0,0.0,0.0,0.0,0.0,0.0,0.0,0.0,0.0,0.0,0.0,0.0,0.0,0.0,0.0,0.0,0.0,0.0,0.0,0.0,0.0,0.0,0.0,0.0,0.0,0.0,0.0,0.0,0.0,0.0,0.0,0.0,0.0,0.0,0.0,0.0,0.0,0.0,0.0,0.0,0.0,0.0,0.0,0.0,0.0,0.0,0.0,0.0,0.0,0.0,0.0,0.0,0.0,0.0,0.0,0.0,0.0,0.0,0.0,0.0,0.0,0.0,0.0,0.0,0.0,0.0,0.0,0.0,0.0,0.0,0.0,0.0,0.0,0.0,0.0,0.0,0.0,0.0,0.0,0.0,0.0,0.0,0.0,0.0,0.0,0.0,0.0,0.0,0.0,0.0,0.0,0.0,0.0,0.0,0.0,0.0,0.0,0.0,0.0,0.0,0.0,0.0,0.0,0.0,0.0,0.0,0.0,0.0,0.0,0.0,0.0,0.0,0.0,0.0,0.0,0.0,0.0,0.0,0.0,0.0,0.0,0.0,0.0,0.0,0.0,0.0,0.0,0.0,0.0,0.0,0.0,0.0,0.0,0.0,0.0,0.0,0.0,0.0,0.0,0.0,0.0,0.0,0.0,0.0,0.0,0.0,0.0,0.0,0.0,0.0,0.0,0.0,0.0,0.0,0.0,0.0,0.0,0.0,0.0,0.0,0.0,0.0,0.0,0.0,0.0,0.0,0.0,0.0,0.0,0.0,0.0,0.0,0.0,0.0,0.0,0.0,0.0,0.0,0.0,0.0,0.0,0.0,0.0,0.0,0.0,0.0,0.0,0.0,0.0,0.0,0.0,0.0,0.0,0.0,0.0,0.0,0.0,0.0,0.0,0.0,0.0,0.0,0.0,0.0,0.0,0.0,0.0,0.0,0.0,0.0,0.0,0.0,0.0,0.0,0.0,0.0,0.0,0.0,0.0,0.0,0.0,0.0,0.0,0.0,0.0,0.0,0.0,0.0,0.0,0.0,0.0,0.0,0.0,0.0,0.0,0.0,0.0,0.0,0.0,0.0,0.0,0.0,0.0,0.0,0.0,0.0,0.0,0.0,0.0,0.0,0.0,0.0,0.0,0.0,0.0,0.0,0.0,0.0,0.0,0.0,0.0,0.0,0.0,0.0,0.0,0.0,0.0,0.0,0.0,0.0,0.0,0.0,0.0,0.0,0.0,0.0,0.0,0.0,0.0,0.0,0.0,0.0,0.0,0.0,0.0,0.0,0.0,0.0,0.0,0.0,0.0,0.0,0.0,0.0,0.0,0.0,0.0,0.0,0.0,0.0,0.0,0.0,0.0,0.0,0.0,0.0,0.0,0.0,0.0,0.0,0.0,0.0,0.0,0.0,0.0,0.0,0.0,0.0,0.0,0.0,0.0,0.0,0.0,0.0,0.0,0.0,0.0,0.0,0.0,0.0,0.0,0.0,0.0,0.0,0.0,0.0,0.0,0.0,0.0,0.0,0.0,0.0,0.0,0.0,0.0,0.0,0.0,0.0,0.0,0.0,0.0,0.0,0.0,0.0,0.0,0.0,0.0,0.0,0.0,0.0,0.0,0.0,0.0,0.0,0.0,0.0,0.0,0.0,0.0,0.0,0.0,0.0,0.0,0.0,0.0,0.0,0.0,0.0,0.0,0.0,0.0,0.0,0.0,0.0,0.0,0.0,0.0,0.0,0.0,0.0,0.0,0.0,0.0,0.0,0.0,0.0,0.0,0.0,0.0,0.0,0.0,0.0,0.0,0.0,0.0,0.0,0.0,0.0,0.0,0.0,0.0,0.0,0.0,0.0,0.0,0.0,0.0,0.0,0.0,0.0,0.0,0.0,0.0,0.0,0.0,0.0,0.0,0.0,0.0,0.0,0.0,0.0,0.0,0.0,0.0,0.0,0.0,0.0,0.0,0.0,0.0,0.0,0.0,0.0,0.0,0.0,0.0,0.0,0.0,0.0,0.0,0.0,0.0,0.0,0.0,0.0,0.0,0.0,0.0,0.0,0.0,0.0,0.0,0.0,0.0,0.0,0.0,0.0,0.0,0.0,0.0,0.0,0.0,0.0,0.0,0.0,0.0,0.0,0.0,0.0,0.0,0.0,0.0,0.0,0.0,0.0,0.0,0.0,0.0,0.0,0.0,0.0,0.0,0.0,0.0,0.0,0.0,0.0,0.0,0.0,0.0,0.0,0.0,0.0,0.0,0.0,0.0,0.0,0.0,0.0,0.0,0.0,0.0,0.0,0.0,0.0,0.0,0.0,0.0,0.0,0.0,0.0,0.0,0.0,0.0,0.0,0.0,0.0,0.0,0.0,0.0,0.0,0.0,0.0,0.0,0.0,0.0,0.0,0.0,0.0,0.0,0.0,0.0,0.0,0.0,0.0,0.0,0.0,0.0,0.0,0.0,0.0,0.0,0.0,0.0,0.0,0.0,0.0,0.0,0.0,0.0,0.0,0.0,0.0,0.0,0.0,0.0,0.0,0.0,0.0,0.0,0.0,0.0,0.0,0.0,0.0,0.0,0.0,0.0,0.0,0.0,0.0,0.0,0.0,0.0,0.0,0.0,0.0,0.0,0.0,0.0,0.0,0.0,0.0,0.0,0.0,0.0,0.0,0.0,0.0,0.0,0.0,0.0,0.0,0.0,0.0,0.0,0.0,0.0,0.0,0.0,0.0,0.0,0.0,0.0,0.0,0.0,0.0,0.0,0.0,0.0,0.0,0.0,0.0,0.0,0.0,0.0,0.0,0.0,0.0,0.0,0.0,0.0,0.0,0.0,0.0,0.0,0.0,0.0,0.0,0.0,0.0,0.0,0.0,0.0,0.0,0.0,0.0,0.0,0.0,0.0,0.0,0.0,0.0,0.0,0.0,0.0,0.0,0.0,0.0,0.0,0.0,0.0,0.0,0.0,0.0,0.0,0.0,0.0,0.0,0.0,0.0,0.0,0.0,0.0,0.0,0.0,0.0,0.0,0.0,0.0,0.0,0.0,0.0,0.0,0.0,0.0,0.0,0.0,0.0,0.0,0.0,0.0,0.0,0.0,0.0,0.0,0.0,0.0,0.0,0.0,0.0,0.0,0.0,0.0,0.0,0.0,0.0,0.0,0.0,0.0,0.0,0.0,0.0,0.0,0.0,0.0,0.0,0.0,0.0,0.0,0.0,0.0,0.0,0.0,0.0,0.0,0.0,0.0,0.0,0.0,0.0,0.0,0.0,0.0,0.0,0.0,0.0,0.0,0.0,0.0,0.0,0.0,0.0,0.0,0.0,0.0,0.0,0.0,0.0,0.0,0.0,0.0,0.0,0.0,0.0,0.0,0.0,0.0,0.0,0.0,0.0,0.0,0.0,0.0,0.0,0.0,0.0,0.0,0.0,0.0,0.0,0.0,0.0,0.0,0.0,0.0,0.0,0.0,0.0,0.0,0.0,0.0,0.0,0.0,0.0,0.0,0.0,0.0,0.0,0.0,0.0,0.0,0.0,0.0,0.0,0.0,0.0,0.0,0.0,0.0,0.0,0.0,0.0,0.0,0.0,0.0,0.0,0.0,0.0,0.0,0.0,0.0,0.0,0.0,0.0,0.0,0.0,0.0,0.0,0.0,0.0,0.0,0.0,0.0,0.0,0.0,0.0,0.0,0.0,0.0,0.0,0.0,0.0,0.0,0.0,0.0,0.0,0.0,0.0,0.0,0.0,0.0,0.0,0.0,0.0,0.0,0.0,0.0,0.0,0.0,0.0,0.0,0.0,0.0,0.0,0.0,0.0,0.0,0.0,0.0,0.0,0.0,0.0,0.0,0.0,0.0,0.0,0.0,0.0,0.0,0.0,0.0,0.0,0.0,0.0,0.0,0.0,0.0,0.0,0.0,0.0,0.0,0.0,0.0,0.0,0.0,0.0,0.0,0.0,0.0,0.0,0.0,0.0,0.0,0.0,0.0,0.0,0.0,0.0,0.0,0.0,0.0,0.0,0.0,0.0,0.0,0.0,0.0,0.0,0.0,0.0,0.0,0.0,0.0,0.0,0.0,0.0,0.0,0.0,0.0,0.0,0.0,0.0,0.0,0.0,0.0,0.0,0.0,0.0,0.0,0.0,0.0,0.0,0.0,0.0,0.0,0.0,0.0,0.0,0.0,0.0,0.0,0.0,0.0,0.0,0.0,0.0,0.0,0.0,0.0,0.0,0.0,0.0,0.0,0.0,0.0,0.0,0.0,0.0,0.0,0.0,0.0,0.0,0.0,0.0,0.0,0.0,0.0,0.0,0.0,0.0,0.0,0.0,0.0,0.0,0.0,0.0,0.0,0.0,0.0,0.0,0.0,0.0,0.0,0.0,0.0,0.0,0.0,0.0,0.0,0.0,0.0,0.0,0.0,0.0,0.0,0.0,0.0,0.0,0.0,0.0,0.0,0.0,0.0,0.0,0.0,0.0,0.0,0.0,0.0,0.0,0.0,0.0,0.0,0.0,0.0,0.0,0.0,0.0,0.0,0.0,0.0,0.0,0.0,0.0,0.0,0.0,0.0,0.0,0.0,0.0,0.0,0.0,0.0,0.0,0.0,0.0,0.0,0.0,0.0,0.0,0.0,0.0,0.0,0.0,0.0,0.0,0.0,0.0,0.0,0.0,0.0,0.0,0.0,0.0,0.0,0.0,0.0,0.0,0.0,0.0,0.0,0.0,0.0,0.0,0.0,0.0,0.0,0.0,0.0,0.0,0.0,0.0,0.0,0.0,0.0,0.0,0.0,0.0,0.0,0.0,0.0,0.0,0.0,0.0,0.0,0.0,0.0,0.0,0.0,0.0,0.0,0.0,0.0,0.0,0.0,0.0,0.0,0.0,0.0,0.0,0.0,0.0,0.0,0.0,0.0,0.0,0.0,0.0,0.0,0.0,0.0,0.0,0.0,0.0,0.0,0.0,0.0,0.0,0.0,0.0,0.0,0.0,0.0,0.0,0.0,0.0,0.0,0.0,0.0,0.0,0.0,0.0,0.0,0.0,0.0,0.0,0.0,0.0,0.0,0.0,0.0,0.0,0.0,0.0,0.0,0.0,0.0,0.0,0.0,0.0,0.0,0.0,0.0,0.0,0.0,0.0,0.0,0.0,0.0,0.0,0.0,0.0,0.0,0.0,0.0,0.0,0.0,0.0,0.0,0.0,0.0,0.0,0.0,0.0,0.0,0.0,0.0,0.0,0.0,0.0,0.0,0.0,0.0,0.0,0.0,0.0,0.0,0.0,0.0,0.0,0.0,0.0,0.0,0.0,0.0,0.0,0.0,0.0,0.0,0.0,0.0,0.0,0.0,0.0,0.0,0.0,0.0,0.0,0.0,0.0,0.0,0.0,0.0,0.0,0.0,0.0,0.0,0.0,0.0,0.0,0.0,0.0,0.0,0.0,0.0,0.0,0.0,0.0,0.0,0.0,0.0,0.0,0.0,0.0,0.0,0.0,0.0,0.0,0.0,0.0,0.0,0.0,0.0,0.0,0.0,0.0,0.0,0.0,0.0,0.0,0.0,0.0,0.0,0.0,0.0,0.0,0.0,0.0,0.0,0.0,0.0,0.0,0.0,0.0,0.0,0.0,0.0,0.0,0.0,0.0,0.0,0.0,0.0,0.0,0.0,0.0,0.0,0.0,0.0,0.0,0.0,0.0,0.0,0.0,0.0,0.0,0.0,0.0,0.0,0.0,0.0,0.0,0.0,0.0,0.0,0.0,0.0,0.0,0.0,0.0,0.0,0.0,0.0,0.0,0.0,0.0,0.0,0.0,0.0,0.0,0.0,0.0,0.0,0.0,0.0,0.0,0.0,0.0,0.0,0.0,0.0,0.0,0.0,0.0,0.0,0.0,0.0,0.0,0.0,0.0,0.0,0.0,0.0,0.0,0.0,0.0,0.0,0.0,0.0,0.0,0.0,0.0,0.0,0.0,0.0,0.0,0.0,0.0,0.0,0.0,0.0,0.0,0.0,0.0,0.0,0.0,0.0,0.0,0.0,0.0,0.0,0.0,0.0,0.0,0.0,0.0,0.0,0.0,0.0,0.0,0.0,0.0,0.0,0.0,0.0,0.0,0.0,0.0,0.0,0.0,0.0,0.0,0.0,0.0,0.0,0.0,0.0,0.0,0.0,0.0,0.0,0.0,0.0,0.0,0.0,0.0,0.0,0.0,0.0,0.0,0.0,0.0,0.0,0.0,0.0,0.0,0.0,0.0,0.0,0.0,0.0,0.0,0.0,0.0,0.0,0.0,0.0,0.0,0.0,0.0,0.0,0.0,0.0,0.0,0.0,0.0,0.0,0.0,0.0,0.0,0.0,0.0,0.0,0.0,0.0,0.0,0.0,0.0,0.0,0.0,0.0,0.0,0.0,0.0,0.0,0.0,0.0,0.0,0.0,0.0,0.0,0.0,0.0,0.0,0.0,0.0,0.0,0.0,0.0,0.0,0.0,0.0,0.0,0.0,0.0,0.0,0.0,0.0,0.0,0.0,0.0,0.0,0.0,0.0,0.0,0.0,0.0,0.0,0.0,0.0,0.0,0.0,0.0,0.0,0.0,0.0,0.0,0.0,0.0,0.0,0.0,0.0,0.0,0.0,0.0,0.0,0.0,0.0,0.0,0.0,0.0,0.0,0.0,0.0,0.0,0.0,0.0,0.0,0.0,0.0,0.0,0.0,0.0,0.0,0.0,0.0,0.0,0.0,0.0,0.0,0.0,0.0,0.0,0.0,0.0,0.0,0.0,0.0,0.0,0.0,0.0,0.0,0.0,0.0,0.0,0.0,0.0,0.0,0.0,0.0,0.0,0.0,0.0,0.0,0.0,0.0,0.0,0.0,0.0,0.0,0.0,0.0,0.0,0.0,0.0,0.0,0.0,0.0,0.0,0.0,0.0,0.0,0.0,0.0,0.0,0.0,0.0,0.0,0.0,0.0,0.0,0.0,0.0,0.0,0.0,0.0,0.0,0.0,0.0,0.0,0.0,0.0,0.0,0.0,0.0,0.0,0.0,0.0,0.0,0.0,0.0,0.0,0.0,0.0,0.0,0.0,0.0,0.0,0.0,0.0,0.0,0.0,0.0,0.0,0.0,0.0,0.0,0.0,0.0,0.0,0.0,0.0,0.0,0.0,0.0,0.0,0.0,0.0,0.0,0.0,0.0,0.0,0.0,0.0,0.0,0.0,0.0,0.0,0.0,0.0,0.0,0.0,0.0,0.0,0.0,0.0,0.0,0.0,0.0,0.0,0.0,0.0,0.0,0.0,0.0,0.0,0.0,0.0,0.0,0.0,0.0,0.0,0.0,0.0,0.0,0.0,0.0,0.0,0.0,0.0,0.0,0.0,0.0,0.0,0.0,0.0,0.0,0.0,0.0,0.0,0.0,0.0,0.0,0.0,0.0,0.0,0.0,0.0,0.0,0.0,0.0,0.0,0.0,0.0,0.0,0.0,0.0,0.0,0.0,0.0,0.0,0.0,0.0,0.0,0.0,0.0,0.0,0.0,0.0,0.0,0.0,0.0,0.0,0.0,0.0,0.0,0.0,0.0,0.0,0.0,0.0,0.0,0.0,0.0,0.0,0.0,0.0,0.0,0.0,0.0,0.0,0.0,0.0,0.0,0.0,0.0,0.0,0.0,0.0,0.0,0.0,0.0,0.0,0.0,0.0,0.0,0.0,0.0,0.0,0.0,0.0,0.0,0.0,0.0,0.0,0.0,0.0,0.0,0.0,0.0,0.0,0.0,0.0,0.0,0.0,0.0,0.0,0.0,0.0,0.0,0.0,0.0,0.0,0.0,0.0,0.0,0.0,0.0,0.0,0.0,0.0,0.0,0.0,0.0,0.0,0.0,0.0,0.0,0.0,0.0,0.0,0.0,0.0,0.0,0.0,0.0,0.0,0.0,0.0,0.0,0.0,0.0,0.0,0.0,0.0,0.0,0.0,0.0,0.0,0.0,0.0,0.0,0.0,0.0,0.0,0.0,0.0,0.0,0.0,0.0,0.0,0.0,0.0,0.0,0.0,0.0,0.0,0.0,0.0,0.0,0.0,0.0,0.0,0.0,0.0,0.0,0.0,0.0,0.0,0.0,0.0,0.0,0.0,0.0,0.0,0.0,0.0,0.0,0.0,0.0,0.0,0.0,0.0,0.0,0.0,0.0,0.0,0.0,0.0,0.0,0.0,0.0,0.0,0.0,0.0,0.0,0.0,0.0,0.0,0.0,0.0,0.0,0.0,0.0,0.0,0.0,0.0,0.0,0.0,0.0,0.0,0.0,0.0,0.0,0.0,0.0,0.0,0.0,0.0,0.0,0.0,0.0,0.0,0.0,0.0,0.0,0.0,0.0,0.0,0.0,0.0,0.0,0.0,0.0,0.0,0.0,0.0,0.0,0.0,0.0,0.0,0.0,0.0,0.0,0.0,0.0,0.0,0.0,0.0,0.0,0.0,0.0,0.0,0.0,0.0,0.0,0.0,0.0,0.0,0.0,0.0,0.0,0.0,0.0,0.0,0.0,0.0,0.0,0.0,0.0,0.0,0.0,0.0,0.0,0.0,0.0,0.0,0.0,0.0,0.0,0.0,0.0,0.0,0.0,0.0,0.0,0.0,0.0,0.0,0.0,0.0,0.0,0.0,0.0,0.0,0.0,0.0,0.0,0.0,0.0,0.0,0.0,0.0,0.0,0.0,0.0,0.0,0.0,0.0,0.0,0.0,0.0,0.0,0.0,0.0,0.0,0.0,0.0,0.0,0.0,0.0,0.0,0.0,0.0,0.0,0.0,0.0,0.0,0.0,0.0,0.0,0.0,0.0,0.0,0.0,0.0,0.0,0.0,0.0,0.0,0.0,0.0,0.0,0.0,0.0,0.0,0.0,0.0,0.0,0.0,0.0,0.0,0.0,0.0,0.0,0.0,0.0,0.0,0.0,0.0,0.0,0.0,0.0,0.0,0.0,0.0,0.0,0.0,0.0,0.0,0.0,0.0,0.0,0.0,0.0,0.0,0.0,0.0,0.0,0.0,0.0,0.0,0.0,0.0,0.0,0.0,0.0,0.0,0.0,0.0,0.0,0.0,0.0,0.0,0.0,0.0,0.0,0.0,0.0,0.0,0.0,0.0,0.0,0.0,0.0,0.0,0.0,0.0,0.0,0.0,0.0,0.0,0.0,0.0,0.0,0.0,0.0,0.0,0.0,0.0,0.0,0.0,0.0,0.0,0.0,0.0,0.0,0.0,0.0,0.0,0.0,0.0,0.0,0.0,0.0,0.0,0.0,0.0,0.0,0.0,0.0,0.0,0.0,0.0,0.0,0.0,0.0,0.0,0.0,0.0,0.0,0.0,0.0,0.0,0.0,0.0,0.0,0.0,0.0,0.0,0.0,0.0,0.0,0.0,0.0,0.0,0.0,0.0,0.0,0.0,0.0,0.0,0.0,0.0,0.0,0.0,0.0,0.0,0.0,0.0,0.0,0.0,0.0,0.0,0.0,0.0,0.0,0.0,0.0,0.0,0.0,0.0,0.0,0.0,0.0,0.0,0.0,0.0,0.0,0.0,0.0,0.0,0.0,0.0,0.0,0.0,0.0,0.0,0.0,0.0,0.0,0.0,0.0,0.0,0.0,0.0,0.0,0.0,0.0,0.0,0.0,0.0,0.0,0.0,0.0,0.0,0.0,0.0,0.0,0.0,0.0,0.0,0.0,0.0,0.0,0.0,0.0,0.0,0.0,0.0,0.0,0.0,0.0,0.0,0.0,0.0,0.0,0.0,0.0,0.0,0.0,0.0,0.0,0.0,0.0,0.0,0.0,0.0,0.0,0.0,0.0,0.0,0.0,0.0,0.0,0.0,0.0,0.0,0.0,0.0,0.0,0.0,0.0,0.0,0.0,0.0,0.0,0.0,0.0,0.0,0.0,0.0,0.0,0.0,0.0,0.0,0.0,0.0,0.0,0.0,0.0,0.0,0.0,0.0,0.0,0.0,0.0,0.0,0.0,0.0,0.0,0.0,0.0,0.0,0.0,0.0,0.0,0.0,0.0,0.0,0.0,0.0,0.0,0.0,0.0,0.0,0.0,0.0,0.0,0.0,0.0,0.0,0.0,0.0,0.0,0.0,0.0,0.0,0.0,0.0,0.0,0.0,0.0,0.0,0.0,0.0,0.0,0.0,0.0,0.0,0.0,0.0,0.0,0.0,0.0,0.0,0.0,0.0,0.0,0.0,0.0,0.0,0.0,0.0,0.0,0.0,0.0,0.0,0.0,0.0,0.0,0.0,0.0,0.0,0.0,0.0,0.0,0.0,0.0,0.0,0.0,0.0,0.0,0.0,0.0,0.0,0.0,0.0,0.0,0.0,0.0,0.0,0.0,0.0,0.0,0.0,0.0,0.0,0.0,0.0,0.0,0.0,0.0,0.0,0.0,0.0,0.0,0.0,0.0,0.0,0.0,0.0,0.0,0.0,0.0,0.0,0.0,0.0,0.0,0.0,0.0,0.0,0.0,0.0,0.0,0.0,0.0,0.0,0.0,0.0,0.0,0.0,0.0,0.0,0.0,0.0,0.0,0.0,0.0,0.0,0.0,0.0,0.0,0.0,0.0,0.0,0.0,0.0,0.0,0.0,0.0,0.0,0.0,0.0,0.0,0.0,0.0,0.0,0.0,0.0,0.0,0.0,0.0,0.0,0.0,0.0,0.0,0.0,0.0,0.0,0.0,0.0,0.0,0.0,0.0,0.0,0.0,0.0,0.0,0.0,0.0,0.0,0.0,0.0,0.0,0.0,0.0,0.0,0.0,0.0,0.0,0.0,0.0,0.0,0.0,0.0,0.0,0.0,0.0,0.0,0.0,0.0,0.0,0.0,0.0,0.0,0.0,0.0,0.0,0.0,0.0,0.0,0.0,0.0,0.0,0.0,0.0,0.0,0.0,0.0,0.0,0.0,0.0,0.0,0.0,0.0,0.0,0.0,0.0,0.0,0.0,0.0,0.0,0.0,0.0,0.0,0.0,0.0,0.0,0.0,0.0,0.0,0.0,0.0,0.0,0.0,0.0,0.0,0.0,0.0,0.0,0.0,0.0,0.0,0.0,0.0,0.0,0.0,0.0,0.0,0.0,0.0,0.0,0.0,0.0,0.0,0.0,0.0,0.0,0.0,0.0,0.0,0.0,0.0,0.0,0.0,0.0,0.0,0.0,0.0,0.0,0.0,0.0,0.0,0.0,0.0,0.0,0.0,0.0,0.0,0.0,0.0,0.0,0.0,0.0,0.0,0.0,0.0,0.0,0.0,0.0,0.0,0.0,0.0,0.0,0.0,0.0,0.0,0.0,0.0,0.0,0.0,0.0,0.0,0.0,0.0,0.0,0.0,0.0,0.0,0.0,0.0,0.0,0.0,0.0,0.0,0.0,0.0,0.0,0.0,0.0,0.0,0.0,0.0,0.0,0.0,0.0,0.0,0.0,0.0,0.0,0.0,0.0,0.0,0.0,0.0,0.0,0.0,0.0,0.0,0.0,0.0,0.0,0.0,0.0,0.0,0.0,0.0,0.0,0.0,0.0,0.0,0.0,0.0,0.0,0.0,0.0,0.0,0.0,0.0,0.0,0.0,0.0,0.0,0.0,0.0,0.0,0.0,0.0,0.0,0.0,0.0,0.0,0.0,0.0,0.0,0.0,0.0,0.0,0.0,0.0,0.0,0.0,0.0,0.0,0.0,0.0,0.0,0.0,0.0,0.0,0.0,0.0,0.0,0.0,0.0,0.0,0.0,0.0,0.0,0.0,0.0,0.0,0.0,0.0,0.0,0.0,0.0,0.0,0.0,0.0,0.0,0.0,0.0,0.0,0.0,0.0,0.0,0.0,0.0,0.0,0.0,0.0,0.0,0.0,0.0,0.0,0.0,0.0,0.0,0.0,0.0,0.0,0.0,0.0,0.0,0.0,0.0,0.0,0.0,0.0,0.0,0.0,0.0,0.0,0.0,0.0,0.0,0.0,0.0,0.0,0.0,0.0,0.0,0.0,0.0,0.0,0.0,0.0,0.0,0.0,0.0,0.0,0.0,0.0,0.0,0.0,0.0,0.0,0.0,0.0,0.0,0.0,0.0,0.0,0.0,0.0,0.0,0.0,0.0,0.0,0.0,0.0,0.0,0.0,0.0,0.0,0.0,0.0,0.0,0.0,0.0,0.0,0.0,0.0,0.0,0.0,0.0,0.0,0.0,0.0,0.0,0.0,0.0,0.0,0.0,0.0,0.0,0.0,0.0,0.0,0.0,0.0,0.0,0.0,0.0,0.0,0.0,0.0,0.0,0.0,0.0,0.0,0.0,0.0,0.0,0.0,0.0,0.0,0.0,0.0,0.0,0.0,0.0,0.0,0.0,0.0,0.0,0.0,0.0,0.0,0.0,0.0,0.0,0.0,0.0,0.0,0.0,0.0,0.0,0.0,0.0,0.0,0.0,0.0,0.0,0.0,0.0,0.0,0.0,0.0,0.0,0.0,0.0,0.0,0.0,0.0,0.0,0.0,0.0,0.0,0.0,0.0,0.0,0.0,0.0,0.0,0.0,0.0,0.0,0.0,0.0,0.0,0.0,0.0,0.0,0.0,0.0,0.0,0.0,0.0,0.0,0.0,0.0,0.0,0.0,0.0,0.0,0.0,0.0,0.0,0.0,0.0,0.0,0.0,0.0,0.0,0.0,0.1882,0.2833,0.2857,0.2877,0.1934,0.0,0.2213,0.2961,0.2961,0.1974,0.0987,0.0,0.0,0.0,0.0,0.0,0.0,0.0,0.0,0.0,0.0,0.0,0.0,0.0,0.0,0.0,0.0,0.0,0.0,0.0,0.0,0.0,0.0,0.0,0.0,0.0,0.0,0.0,0.0,0.0,0.0,0.0,0.0,0.0,0.0,0.0,0.0,0.0,0.0,0.0,0.0,0.0,0.0,0.0,0.0,0.0,0.0,0.0,0.0,0.0,0.0,0.0,0.0,0.0,0.0,0.0,0.0,0.0,0.0,0.0,0.0,0.0,0.0,0.0,0.0,0.0,0.0,0.0,0.0,0.0,0.0,0.0,0.0,0.0,0.0,0.0,0.0,0.0,0.0,0.0,0.0,0.0,0.0,0.0,0.0,0.0,0.0,0.0,0.0,0.0,0.0,0.0,0.0,0.0,0.0,0.0,0.0,0.0,0.0,0.0,0.0,0.0,0.8941,1.3296,1.3266,1.3765,0.898,0.0245,0.9604,1.4085,1.3834,0.9115,0.4432,0.0,0.0,0.0,0.0,0.0,0.0,0.0,0.0,0.0,0.0,0.0,0.0,0.0,0.0,0.0,0.0,0.0,0.0,0.0,0.0,0.0,0.0,0.0,0.0,0.0,0.0,0.0,0.0,0.0,0.0,0.0,0.0,0.0,0.0,0.0,0.0,0.0,0.0,0.0,0.0,0.0,0.0,0.0,0.0,0.0,0.0,0.0,0.0,0.0,0.0,0.0,0.0,0.0,0.0,0.0,0.0,0.0,0.0,0.0,0.0,0.0,0.0,0.0,0.0,0.0,0.0,0.0,0.0,0.0,0.0,0.0,0.0,0.0,0.0,0.0,0.0,0.0,0.0,0.0,0.0,0.0,0.0,0.0,0.0,0.0,0.0,0.0,0.0,0.0,0.0,0.0,0.0,0.0,0.0,0.0,0.0,0.0,0.0,0.0,0.282,0.8696,1.2948,1.4954,1.4944,1.5445,1.3359,0.9348,1.3825,1.5825,1.5574,1.3329,1.1338,0.887,0.5906,0.2708,0.0,0.0,0.0,0.0,0.0,0.0,0.0,0.0,0.0,0.0,0.0,0.0,0.0,0.0,0.0,0.0,0.0,0.0,0.0,0.0,0.0,0.0,0.0,0.0,0.0,0.0,0.0,0.0,0.0,0.0,0.0,0.0,0.0,0.0,0.0,0.0,0.0,0.0,0.0,0.0,0.0,0.0,0.0,0.0,0.0,0.0,0.0,0.0,0.0,0.0,0.0,0.0,0.0,0.0,0.0,0.0,0.0,0.0,0.0,0.0,0.0,0.0,0.0,0.0,0.0,0.0,0.0,0.0,0.0,0.0,0.0,0.0,0.0,0.0,0.0,0.0,0.0,0.0,0.0,0.0,0.0,0.0,0.0,0.0,0.0,0.0,0.0,0.0,0.0,0.0,0.0,0.0,0.0,0.0,0.0,0.2585,0.7518,1.483,1.5064,1.4911,1.5103,1.5629,1.5778,1.5744,1.5782,1.5809,1.5809,1.5809,1.5809,1.5558,1.1575,0.788,0.4186,0.2708,0.2217,0.1972,0.0494,0.0,0.0,0.0,0.0,0.0,0.0,0.0,0.0,0.0,0.0,0.0,0.0,0.0,0.0,0.0,0.0,0.0,0.0,0.0,0.0,0.0,0.0,0.0,0.0,0.0,0.0,0.0,0.0,0.0,0.0,0.0,0.0,0.0,0.0,0.0,0.0,0.0,0.0,0.0,0.0,0.0,0.0,0.0,0.0,0.0,0.0,0.0,0.0,0.0,0.0,0.0,0.0,0.0,0.0,0.0,0.0,0.0,0.0,0.0,0.0,0.0,0.0,0.0,0.0,0.0,0.0,0.0,0.0,0.0,0.0,0.0,0.0,0.0,0.0,0.0,0.0,0.0,0.0,0.0,0.0,0.0,0.0,0.0,0.0,0.0,0.0,0.0,0.0,0.0,0.0,0.9396,1.4591,1.5064,1.5053,1.5108,1.498,1.5574,1.5707,1.5834,1.57,1.5755,1.5755,1.5755,1.5771,1.5798,1.5548,1.5558,1.4822,0.9604,0.7626,0.714,0.1974,0.0,0.0,0.0,0.0,0.0,0.0,0.0,0.0,0.0,0.0,0.0,0.0,0.0,0.0,0.0,0.0,0.0,0.0,0.0,0.0,0.0,0.0,0.0,0.0,0.0,0.0,0.0,0.0,0.0,0.0,0.0,0.0,0.0,0.0,0.0,0.0,0.0,0.0,0.0,0.0,0.0,0.0,0.0,0.0,0.0,0.0,0.0,0.0,0.0,0.0,0.0,0.0,0.0,0.0,0.0,0.0,0.0,0.0,0.0,0.0,0.0,0.0,0.0,0.0,0.0,0.0,0.0,0.0,0.0,0.0,0.0,0.0,0.0,0.0,0.0,0.0,0.0,0.0,0.0,0.0,0.0,0.0,0.0,0.0,0.0,0.0,0.0,0.0,0.3055,0.9652,1.3177,1.5064,1.5053,1.5037,1.5092,1.498,1.5093,1.5461,1.5817,1.57,1.5755,1.5755,1.5755,1.5755,1.5771,1.5771,1.5782,1.5564,1.3815,1.3069,1.2578,0.7147,0.2956,0.0,0.0,0.0,0.0,0.0,0.0,0.0,0.0,0.0,0.0,0.0,0.0,0.0,0.0,0.0,0.0,0.0,0.0,0.0,0.0,0.0,0.0,0.0,0.0,0.0,0.0,0.0,0.0,0.0,0.0,0.0,0.0,0.0,0.0,0.0,0.0,0.0,0.0,0.0,0.0,0.0,0.0,0.0,0.0,0.0,0.0,0.0,0.0,0.0,0.0,0.0,0.0,0.0,0.0,0.0,0.0,0.0,0.0,0.0,0.0,0.0,0.0,0.0,0.0,0.0,0.0,0.0,0.0,0.0,0.0,0.0,0.0,0.0,0.0,0.0,0.0,0.0,0.0,0.0,0.0,0.0,0.0,0.0,0.0,0.0,0.0,0.0,0.4698,1.4633,1.5081,1.5053,1.5037,1.5037,1.5081,1.4927,1.5077,1.5189,1.5762,1.5684,1.5755,1.5755,1.5755,1.5755,1.5755,1.5755,1.5771,1.5782,1.5782,1.5782,1.5297,1.2083,0.6152,0.0,0.0,0.0,0.0,0.0,0.0,0.0,0.0,0.0,0.0,0.0,0.0,0.0,0.0,0.0,0.0,0.0,0.0,0.0,0.0,0.0,0.0,0.0,0.0,0.0,0.0,0.0,0.0,0.0,0.0,0.0,0.0,0.0,0.0,0.0,0.0,0.0,0.0,0.0,0.0,0.0,0.0,0.0,0.0,0.0,0.0,0.0,0.0,0.0,0.0,0.0,0.0,0.0,0.0,0.0]}]]